Observation data for Claude 12 Southwest on 01/21/2021      Previous  Date  Next       Current Mesonet Observations  Soil Data  Daily Summary Page  Observations in Plain Language
KCL1 210600Z 26013G18KT 10/00 A2997 RMK A01 T01000003  RH  051%=      5-min Rain = 0
KCL1 210601Z 26014G20KT 10/00 A2997 RMK A01 T01000003  RH  051%=      5-min Rain = 0
KCL1 210602Z 26015G20KT 10/00 A2997 RMK A01 T00990003  RH  051%=      5-min Rain = 0
KCL1 210603Z 26016KT 10/00 A2997 RMK A01 T00990004  RH  051%=      5-min Rain = 0
KCL1 210604Z 27014G19KT 10/00 A2997 RMK A01 T00990003  RH  051%=      5-min Rain = 0
KCL1 210605Z 26015KT 10/00 A2997 RMK A01 T00990003  RH  051%=      5-min Rain = 0
KCL1 210606Z 27017KT 10/00 A2997 RMK A01 T00990004  RH  051%=      5-min Rain = 0
KCL1 210607Z 26015G21KT 10/00 A2997 RMK A01 T00990004  RH  052%=      5-min Rain = 0
KCL1 210608Z 26015G20KT 10/00 A2997 RMK A01 T00980003  RH  052%=      5-min Rain = 0
KCL1 210609Z 26016KT 10/00 A2997 RMK A01 T00980003  RH  052%=      5-min Rain = 0
KCL1 210610Z 26016KT 10/00 A2997 RMK A01 T00970003  RH  052%=      5-min Rain = 0
KCL1 210611Z 26014KT 10/00 A2997 RMK A01 T00970003  RH  052%=      5-min Rain = 0
KCL1 210612Z 26015KT 10/00 A2997 RMK A01 T00960003  RH  052%=      5-min Rain = 0
KCL1 210613Z 26014KT 10/00 A2997 RMK A01 T00960003  RH  052%=      5-min Rain = 0
KCL1 210614Z 26012KT 10/00 A2997 RMK A01 T00950003  RH  053%=      5-min Rain = 0
KCL1 210615Z 25013KT 10/00 A2997 RMK A01 T00950003  RH  053%=      5-min Rain = 0
KCL1 210616Z 26010KT 10/00 A2997 RMK A01 T00950003  RH  053%=      5-min Rain = 0
KCL1 210617Z 26012G17KT 09/00 A2997 RMK A01 T00940003  RH  053%=      5-min Rain = 0
KCL1 210618Z 26012KT 09/00 A2997 RMK A01 T00930003  RH  053%=      5-min Rain = 0
KCL1 210619Z 25015KT 09/00 A2997 RMK A01 T00930003  RH  053%=      5-min Rain = 0
KCL1 210620Z 26013KT 09/00 A2997 RMK A01 T00930003  RH  053%=      5-min Rain = 0
KCL1 210621Z 25013KT 09/00 A2997 RMK A01 T00930003  RH  053%=      5-min Rain = 0
KCL1 210622Z 25009KT 09/00 A2997 RMK A01 T00930003  RH  053%=      5-min Rain = 0
KCL1 210623Z 26011KT 09/00 A2997 RMK A01 T00930003  RH  054%=      5-min Rain = 0
KCL1 210624Z 26012KT 09/00 A2997 RMK A01 T00930003  RH  054%=      5-min Rain = 0
KCL1 210625Z 26011G16KT 09/00 A2997 RMK A01 T00930003  RH  054%=      5-min Rain = 0
KCL1 210626Z 26010KT 09/00 A2997 RMK A01 T00920003  RH  054%=      5-min Rain = 0
KCL1 210627Z 26008KT 09/00 A2997 RMK A01 T00920003  RH  054%=      5-min Rain = 0
KCL1 210628Z 26010KT 09/00 A2997 RMK A01 T00920003  RH  054%=      5-min Rain = 0
KCL1 210629Z 26009KT 09/00 A2997 RMK A01 T00920003  RH  054%=      5-min Rain = 0
KCL1 210630Z 25009KT 09/00 A2997 RMK A01 T00910003  RH  054%=      5-min Rain = 0
KCL1 210631Z 26012KT 09/00 A2997 RMK A01 T00910003  RH  054%=      5-min Rain = 0
KCL1 210632Z 26010KT 09/00 A2997 RMK A01 T00900003  RH  054%=      5-min Rain = 0
KCL1 210633Z 25008KT 09/00 A2997 RMK A01 T00910003  RH  054%=      5-min Rain = 0
KCL1 210634Z 25010KT 09/00 A2997 RMK A01 T00900003  RH  054%=      5-min Rain = 0
KCL1 210635Z 24010KT 09/00 A2997 RMK A01 T00900003  RH  054%=      5-min Rain = 0
KCL1 210636Z 25010KT 09/00 A2997 RMK A01 T00900003  RH  054%=      5-min Rain = 0
KCL1 210637Z 25010KT 09/00 A2996 RMK A01 T00900002  RH  054%=      5-min Rain = 0
KCL1 210638Z 25008KT 09/00 A2997 RMK A01 T00890003  RH  055%=      5-min Rain = 0
KCL1 210639Z 26011G16KT 09/00 A2996 RMK A01 T00890003  RH  055%=      5-min Rain = 0
KCL1 210640Z 26009KT 09/00 A2996 RMK A01 T00880003  RH  055%=      5-min Rain = 0
KCL1 210641Z 25008KT 09/00 A2996 RMK A01 T00880003  RH  055%=      5-min Rain = 0
KCL1 210642Z 26012KT 09/00 A2996 RMK A01 T00880002  RH  055%=      5-min Rain = 0
KCL1 210643Z 26010KT 09/00 A2996 RMK A01 T00880002  RH  055%=      5-min Rain = 0
KCL1 210644Z 26009G15KT 09/00 A2996 RMK A01 T00880002  RH  055%=      5-min Rain = 0
KCL1 210645Z 25008G13KT 09/00 A2996 RMK A01 T00880002  RH  055%=      5-min Rain = 0
KCL1 210646Z 25009KT 09/00 A2996 RMK A01 T00880002  RH  055%=      5-min Rain = 0
KCL1 210647Z 25008KT 09/00 A2996 RMK A01 T00870002  RH  055%=      5-min Rain = 0
KCL1 210648Z 25008KT 09/00 A2996 RMK A01 T00870002  RH  055%=      5-min Rain = 0
KCL1 210649Z 25009G17KT 09/00 A2996 RMK A01 T00870002  RH  055%=      5-min Rain = 0
KCL1 210650Z 25010KT 09/00 A2996 RMK A01 T00870002  RH  055%=      5-min Rain = 0
KCL1 210651Z 26010KT 09/00 A2996 RMK A01 T00870002  RH  055%=      5-min Rain = 0
KCL1 210652Z 26010KT 09/00 A2996 RMK A01 T00870002  RH  055%=      5-min Rain = 0
KCL1 210653Z 25010KT 09/00 A2996 RMK A01 T00880001  RH  055%=      5-min Rain = 0
KCL1 210654Z 25010KT 09/00 A2996 RMK A01 T00880002  RH  055%=      5-min Rain = 0
KCL1 210655Z 25007KT 09/00 A2996 RMK A01 T00880001  RH  054%=      5-min Rain = 0
KCL1 210656Z 24008KT 09/00 A2996 RMK A01 T00880001  RH  054%=      5-min Rain = 0
KCL1 210657Z 25008KT 09/00 A2996 RMK A01 T00880001  RH  054%=      5-min Rain = 0
KCL1 210658Z 24009KT 09/00 A2996 RMK A01 T00880001  RH  054%=      5-min Rain = 0
KCL1 210659Z 26011KT 09/00 A2995 RMK A01 T00880001  RH  054%=      5-min Rain = 0
KCL1 210700Z 25009KT 09/00 A2996 RMK A01 T00880000  RH  054%=      5-min Rain = 0
KCL1 210701Z 26009KT 09/00 A2996 RMK A01 T00890001  RH  054%=      5-min Rain = 0
KCL1 210702Z 26009KT 09/00 A2996 RMK A01 T00890000  RH  054%=      5-min Rain = 0
KCL1 210703Z 25010KT 09/00 A2996 RMK A01 T00890000  RH  054%=      5-min Rain = 0
KCL1 210704Z 25012KT 09/00 A2996 RMK A01 T00890000  RH  054%=      5-min Rain = 0
KCL1 210705Z 25009G14KT 09/00 A2996 RMK A01 T008900-0  RH  054%=      5-min Rain = 0
KCL1 210706Z 25011KT 09/00 A2996 RMK A01 T008900-0  RH  054%=      5-min Rain = 0
KCL1 210707Z 26010KT 09/00 A2996 RMK A01 T00890000  RH  054%=      5-min Rain = 0
KCL1 210708Z 25009KT 09/00 A2996 RMK A01 T008900-0  RH  054%=      5-min Rain = 0
KCL1 210709Z 25009KT 09/00 A2996 RMK A01 T008800-0  RH  054%=      5-min Rain = 0
KCL1 210710Z 25008KT 09/00 A2996 RMK A01 T008800-0  RH  054%=      5-min Rain = 0
KCL1 210711Z 26008KT 09/00 A2996 RMK A01 T008800-0  RH  054%=      5-min Rain = 0
KCL1 210712Z 24014KT 09/M00 A2996 RMK A01 T00881001  RH  054%=      5-min Rain = 0
KCL1 210713Z 25011KT 09/M00 A2996 RMK A01 T00881001  RH  054%=      5-min Rain = 0
KCL1 210714Z 25010G15KT 09/M00 A2996 RMK A01 T00881001  RH  054%=      5-min Rain = 0
KCL1 210715Z 24014KT 09/M00 A2996 RMK A01 T00881001  RH  054%=      5-min Rain = 0
KCL1 210716Z 24010KT 09/M00 A2996 RMK A01 T00881001  RH  053%=      5-min Rain = 0
KCL1 210717Z 25014KT 09/M00 A2996 RMK A01 T00891001  RH  053%=      5-min Rain = 0
KCL1 210718Z 23010KT 09/M00 A2996 RMK A01 T00891001  RH  053%=      5-min Rain = 0
KCL1 210719Z 23012KT 09/M00 A2996 RMK A01 T00891001  RH  053%=      5-min Rain = 0
KCL1 210720Z 24010KT 09/M00 A2996 RMK A01 T00891001  RH  053%=      5-min Rain = 0
KCL1 210721Z 24011KT 09/M00 A2996 RMK A01 T00891001  RH  053%=      5-min Rain = 0
KCL1 210722Z 23012G18KT 09/M00 A2996 RMK A01 T00891001  RH  053%=      5-min Rain = 0
KCL1 210723Z 23014G19KT 09/M00 A2996 RMK A01 T00891002  RH  053%=      5-min Rain = 0
KCL1 210724Z 23014KT 09/M00 A2996 RMK A01 T00891002  RH  053%=      5-min Rain = 0
KCL1 210725Z 24014KT 09/M00 A2996 RMK A01 T00891002  RH  053%=      5-min Rain = 0
KCL1 210726Z 24011KT 09/M00 A2996 RMK A01 T00891002  RH  053%=      5-min Rain = 0
KCL1 210727Z 24014G19KT 09/M00 A2996 RMK A01 T00891002  RH  053%=      5-min Rain = 0
KCL1 210728Z 25017KT 09/M00 A2996 RMK A01 T00891002  RH  053%=      5-min Rain = 0
KCL1 210729Z 24016G22KT 09/M00 A2996 RMK A01 T00891002  RH  053%=      5-min Rain = 0
KCL1 210730Z 25016KT 09/M00 A2996 RMK A01 T00901002  RH  053%=      5-min Rain = 0
KCL1 210731Z 25017G23KT 09/M00 A2996 RMK A01 T00901002  RH  053%=      5-min Rain = 0
KCL1 210732Z 25014KT 09/M00 A2996 RMK A01 T00901002  RH  053%=      5-min Rain = 0
KCL1 210733Z 25012G17KT 09/M00 A2996 RMK A01 T00891002  RH  053%=      5-min Rain = 0
KCL1 210734Z 25013KT 09/M00 A2996 RMK A01 T00891002  RH  053%=      5-min Rain = 0
KCL1 210735Z 25011KT 09/M00 A2996 RMK A01 T00881002  RH  053%=      5-min Rain = 0
KCL1 210736Z 26013G18KT 09/M00 A2996 RMK A01 T00881002  RH  053%=      5-min Rain = 0
KCL1 210737Z 25010G16KT 09/M00 A2996 RMK A01 T00881002  RH  053%=      5-min Rain = 0
KCL1 210738Z 26011KT 09/M00 A2996 RMK A01 T00871003  RH  053%=      5-min Rain = 0
KCL1 210739Z 26008KT 09/M00 A2996 RMK A01 T00871003  RH  053%=      5-min Rain = 0
KCL1 210740Z 26009KT 09/M00 A2996 RMK A01 T00871002  RH  053%=      5-min Rain = 0
KCL1 210741Z 26010KT 09/M00 A2996 RMK A01 T00861003  RH  054%=      5-min Rain = 0
KCL1 210742Z 26010KT 09/M00 A2996 RMK A01 T00861003  RH  054%=      5-min Rain = 0
KCL1 210743Z 25012KT 09/M00 A2996 RMK A01 T00861003  RH  054%=      5-min Rain = 0
KCL1 210744Z 25011KT 09/M00 A2996 RMK A01 T00861004  RH  053%=      5-min Rain = 0
KCL1 210745Z 26011KT 09/M00 A2996 RMK A01 T00861003  RH  053%=      5-min Rain = 0
KCL1 210746Z 27008KT 09/M00 A2996 RMK A01 T00871003  RH  053%=      5-min Rain = 0
KCL1 210747Z 26011KT 09/M00 A2995 RMK A01 T00871003  RH  053%=      5-min Rain = 0
KCL1 210748Z 26010KT 09/M00 A2995 RMK A01 T00871004  RH  053%=      5-min Rain = 0
KCL1 210749Z 26010KT 09/M00 A2995 RMK A01 T00871004  RH  053%=      5-min Rain = 0
KCL1 210750Z 27009KT 09/M00 A2995 RMK A01 T00871004  RH  053%=      5-min Rain = 0
KCL1 210751Z 25010KT 09/M00 A2995 RMK A01 T00871004  RH  053%=      5-min Rain = 0
KCL1 210752Z 26011KT 09/M01 A2995 RMK A01 T00871005  RH  053%=      5-min Rain = 0
KCL1 210753Z 27011KT 09/M01 A2995 RMK A01 T00871005  RH  052%=      5-min Rain = 0
KCL1 210754Z 27013KT 09/M01 A2995 RMK A01 T00871005  RH  052%=      5-min Rain = 0
KCL1 210755Z 26012KT 09/M01 A2996 RMK A01 T00881005  RH  052%=      5-min Rain = 0
KCL1 210756Z 27013KT 09/M01 A2996 RMK A01 T00881005  RH  052%=      5-min Rain = 0
KCL1 210757Z 26014KT 09/M01 A2996 RMK A01 T00881005  RH  052%=      5-min Rain = 0
KCL1 210758Z 26011KT 09/M01 A2996 RMK A01 T00891005  RH  052%=      5-min Rain = 0
KCL1 210759Z 27011KT 09/M01 A2996 RMK A01 T00881005  RH  052%=      5-min Rain = 0
KCL1 210800Z 26012KT 09/M01 A2995 RMK A01 T00881005  RH  052%=      5-min Rain = 0
KCL1 210801Z 27011KT 09/M01 A2995 RMK A01 T00871006  RH  052%=      5-min Rain = 0
KCL1 210802Z 27013KT 09/M01 A2995 RMK A01 T00881006  RH  052%=      5-min Rain = 0
KCL1 210803Z 27013KT 09/M01 A2995 RMK A01 T00871006  RH  052%=      5-min Rain = 0
KCL1 210804Z 26013G19KT 09/M01 A2995 RMK A01 T00881006  RH  052%=      5-min Rain = 0
KCL1 210805Z 27013KT 09/M01 A2995 RMK A01 T00881007  RH  051%=      5-min Rain = 0
KCL1 210806Z 26016KT 09/M01 A2995 RMK A01 T00881007  RH  051%=      5-min Rain = 0
KCL1 210807Z 26016KT 09/M01 A2995 RMK A01 T00881007  RH  051%=      5-min Rain = 0
KCL1 210808Z 27015KT 09/M01 A2995 RMK A01 T00881007  RH  051%=      5-min Rain = 0
KCL1 210809Z 27011G17KT 09/M01 A2995 RMK A01 T00881007  RH  051%=      5-min Rain = 0
KCL1 210810Z 27014KT 09/M01 A2995 RMK A01 T00881007  RH  051%=      5-min Rain = 0
KCL1 210811Z 27013KT 09/M01 A2995 RMK A01 T00881007  RH  051%=      5-min Rain = 0
KCL1 210812Z 27015KT 09/M01 A2995 RMK A01 T00881008  RH  051%=      5-min Rain = 0
KCL1 210813Z 27016G21KT 09/M01 A2995 RMK A01 T00881008  RH  051%=      5-min Rain = 0
KCL1 210814Z 27013G18KT 09/M01 A2995 RMK A01 T00891008  RH  051%=      5-min Rain = 0
KCL1 210815Z 27014G19KT 09/M01 A2994 RMK A01 T00891008  RH  051%=      5-min Rain = 0
KCL1 210816Z 26014KT 09/M01 A2995 RMK A01 T00881008  RH  051%=      5-min Rain = 0
KCL1 210817Z 26013KT 09/M01 A2994 RMK A01 T00881008  RH  051%=      5-min Rain = 0
KCL1 210818Z 26014KT 09/M01 A2995 RMK A01 T00881008  RH  051%=      5-min Rain = 0
KCL1 210819Z 27015KT 09/M01 A2995 RMK A01 T00881009  RH  051%=      5-min Rain = 0
KCL1 210820Z 26016KT 09/M01 A2995 RMK A01 T00881009  RH  051%=      5-min Rain = 0
KCL1 210821Z 26015KT 09/M01 A2995 RMK A01 T00881008  RH  051%=      5-min Rain = 0
KCL1 210822Z 27015KT 09/M01 A2995 RMK A01 T00881008  RH  051%=      5-min Rain = 0
KCL1 210823Z 27017G23KT 09/M01 A2994 RMK A01 T00881009  RH  051%=      5-min Rain = 0
KCL1 210824Z 26018KT 09/M01 A2995 RMK A01 T00881009  RH  051%=      5-min Rain = 0
KCL1 210825Z 27017KT 09/M01 A2995 RMK A01 T00881009  RH  051%=      5-min Rain = 0
KCL1 210826Z 27018KT 09/M01 A2995 RMK A01 T00881009  RH  051%=      5-min Rain = 0
KCL1 210827Z 27019G25KT 09/M01 A2994 RMK A01 T00881010  RH  050%=      5-min Rain = 0
KCL1 210828Z 27021G26KT 09/M01 A2994 RMK A01 T00891010  RH  050%=      5-min Rain = 0
KCL1 210829Z 27019G26KT 09/M01 A2994 RMK A01 T00901010  RH  049%=      5-min Rain = 0
KCL1 210830Z 26016G22KT 09/M01 A2994 RMK A01 T00901011  RH  049%=      5-min Rain = 0
KCL1 210831Z 27020G27KT 09/M01 A2994 RMK A01 T00911011  RH  049%=      5-min Rain = 0
KCL1 210832Z 27018KT 09/M01 A2994 RMK A01 T00911011  RH  049%=      5-min Rain = 0
KCL1 210833Z 27018G23KT 09/M01 A2994 RMK A01 T00911011  RH  049%=      5-min Rain = 0
KCL1 210834Z 27020KT 09/M01 A2994 RMK A01 T00901011  RH  049%=      5-min Rain = 0
KCL1 210835Z 27015G22KT 09/M01 A2995 RMK A01 T00911011  RH  049%=      5-min Rain = 0
KCL1 210836Z 27019G26KT 09/M01 A2994 RMK A01 T00911012  RH  049%=      5-min Rain = 0
KCL1 210837Z 27019G25KT 09/M01 A2994 RMK A01 T00901012  RH  049%=      5-min Rain = 0
KCL1 210838Z 26018KT 09/M01 A2994 RMK A01 T00911012  RH  049%=      5-min Rain = 0
KCL1 210839Z 27019KT 09/M01 A2994 RMK A01 T00901012  RH  049%=      5-min Rain = 0
KCL1 210840Z 27019G24KT 09/M01 A2994 RMK A01 T00911012  RH  049%=      5-min Rain = 0
KCL1 210841Z 27020G26KT 09/M01 A2994 RMK A01 T00911012  RH  048%=      5-min Rain = 0
KCL1 210842Z 27022KT 09/M01 A2994 RMK A01 T00911013  RH  048%=      5-min Rain = 0
KCL1 210843Z 27018G23KT 09/M01 A2994 RMK A01 T00911013  RH  048%=      5-min Rain = 0
KCL1 210844Z 27017KT 09/M01 A2994 RMK A01 T00901013  RH  048%=      5-min Rain = 0
KCL1 210845Z 27020KT 09/M01 A2994 RMK A01 T00901013  RH  049%=      5-min Rain = 0
KCL1 210846Z 27020G26KT 09/M01 A2994 RMK A01 T00901013  RH  048%=      5-min Rain = 0
KCL1 210847Z 27017G22KT 09/M01 A2994 RMK A01 T00901014  RH  048%=      5-min Rain = 0
KCL1 210848Z 27018KT 09/M01 A2994 RMK A01 T00901013  RH  048%=      5-min Rain = 0
KCL1 210849Z 27018G24KT 09/M01 A2994 RMK A01 T00901013  RH  048%=      5-min Rain = 0
KCL1 210850Z 27019G25KT 09/M01 A2994 RMK A01 T00901014  RH  048%=      5-min Rain = 0
KCL1 210851Z 26018KT 09/M01 A2994 RMK A01 T00901014  RH  048%=      5-min Rain = 0
KCL1 210852Z 26015G20KT 09/M01 A2995 RMK A01 T00891014  RH  048%=      5-min Rain = 0
KCL1 210853Z 26014KT 09/M01 A2995 RMK A01 T00891014  RH  048%=      5-min Rain = 0
KCL1 210854Z 26015G20KT 09/M01 A2995 RMK A01 T00891014  RH  048%=      5-min Rain = 0
KCL1 210855Z 26013KT 09/M01 A2995 RMK A01 T00881014  RH  049%=      5-min Rain = 0
KCL1 210856Z 26013KT 09/M02 A2995 RMK A01 T00871015  RH  049%=      5-min Rain = 0
KCL1 210857Z 26015KT 09/M02 A2995 RMK A01 T00871015  RH  049%=      5-min Rain = 0
KCL1 210858Z 25014G19KT 09/M02 A2995 RMK A01 T00871015  RH  049%=      5-min Rain = 0
KCL1 210859Z 25013G20KT 09/M02 A2995 RMK A01 T00871015  RH  049%=      5-min Rain = 0
KCL1 210900Z 26013G18KT 09/M02 A2995 RMK A01 T00871015  RH  049%=      5-min Rain = 0
KCL1 210901Z 25016G22KT 09/M02 A2995 RMK A01 T00871015  RH  049%=      5-min Rain = 0
KCL1 210902Z 26013KT 09/M02 A2995 RMK A01 T00871016  RH  048%=      5-min Rain = 0
KCL1 210903Z 25014G19KT 09/M02 A2995 RMK A01 T00881016  RH  048%=      5-min Rain = 0
KCL1 210904Z 25012KT 09/M02 A2995 RMK A01 T00881015  RH  048%=      5-min Rain = 0
KCL1 210905Z 26017KT 09/M02 A2995 RMK A01 T00881016  RH  048%=      5-min Rain = 0
KCL1 210906Z 26014G19KT 09/M02 A2996 RMK A01 T00881016  RH  048%=      5-min Rain = 0
KCL1 210907Z 26012G17KT 09/M02 A2996 RMK A01 T00881016  RH  048%=      5-min Rain = 0
KCL1 210908Z 27013KT 09/M02 A2995 RMK A01 T00881016  RH  048%=      5-min Rain = 0
KCL1 210909Z 26014KT 09/M02 A2995 RMK A01 T00881016  RH  048%=      5-min Rain = 0
KCL1 210910Z 26013KT 09/M02 A2995 RMK A01 T00881016  RH  048%=      5-min Rain = 0
KCL1 210911Z 26014KT 09/M02 A2995 RMK A01 T00881016  RH  048%=      5-min Rain = 0
KCL1 210912Z 26013KT 09/M02 A2995 RMK A01 T00881016  RH  048%=      5-min Rain = 0
KCL1 210913Z 27013KT 09/M02 A2995 RMK A01 T00881017  RH  048%=      5-min Rain = 0
KCL1 210914Z 27015KT 09/M02 A2995 RMK A01 T00881017  RH  048%=      5-min Rain = 0
KCL1 210915Z 26014KT 09/M02 A2995 RMK A01 T00881016  RH  048%=      5-min Rain = 0
KCL1 210916Z 27014G19KT 09/M02 A2995 RMK A01 T00881016  RH  048%=      5-min Rain = 0
KCL1 210917Z 27014KT 09/M02 A2995 RMK A01 T00881016  RH  048%=      5-min Rain = 0
KCL1 210918Z 26016KT 09/M02 A2995 RMK A01 T00871017  RH  048%=      5-min Rain = 0
KCL1 210919Z 26014G19KT 09/M02 A2995 RMK A01 T00871017  RH  048%=      5-min Rain = 0
KCL1 210920Z 27016KT 09/M02 A2995 RMK A01 T00871017  RH  048%=      5-min Rain = 0
KCL1 210921Z 27015KT 09/M02 A2995 RMK A01 T00871017  RH  048%=      5-min Rain = 0
KCL1 210922Z 26016G21KT 09/M02 A2995 RMK A01 T00871017  RH  048%=      5-min Rain = 0
KCL1 210923Z 27019KT 09/M02 A2995 RMK A01 T00871016  RH  048%=      5-min Rain = 0
KCL1 210924Z 27014KT 09/M02 A2995 RMK A01 T00871016  RH  048%=      5-min Rain = 0
KCL1 210925Z 27014KT 09/M02 A2995 RMK A01 T00871017  RH  048%=      5-min Rain = 0
KCL1 210926Z 27016KT 09/M02 A2995 RMK A01 T00861017  RH  048%=      5-min Rain = 0
KCL1 210927Z 27016KT 09/M02 A2995 RMK A01 T00851017  RH  049%=      5-min Rain = 0
KCL1 210928Z 27012G18KT 09/M02 A2995 RMK A01 T00851017  RH  049%=      5-min Rain = 0
KCL1 210929Z 26014KT 09/M02 A2995 RMK A01 T00851016  RH  049%=      5-min Rain = 0
KCL1 210930Z 26013G18KT 08/M02 A2995 RMK A01 T00841017  RH  049%=      5-min Rain = 0
KCL1 210931Z 27013KT 08/M02 A2995 RMK A01 T00841016  RH  049%=      5-min Rain = 0
KCL1 210932Z 26014G19KT 08/M02 A2995 RMK A01 T00831016  RH  049%=      5-min Rain = 0
KCL1 210933Z 27016KT 08/M02 A2995 RMK A01 T00831017  RH  050%=      5-min Rain = 0
KCL1 210934Z 26014KT 08/M02 A2995 RMK A01 T00831017  RH  050%=      5-min Rain = 0
KCL1 210935Z 27012KT 08/M02 A2995 RMK A01 T00831016  RH  050%=      5-min Rain = 0
KCL1 210936Z 26014KT 08/M02 A2995 RMK A01 T00821017  RH  050%=      5-min Rain = 0
KCL1 210937Z 26013KT 08/M02 A2995 RMK A01 T00821017  RH  050%=      5-min Rain = 0
KCL1 210938Z 27012KT 08/M02 A2995 RMK A01 T00821017  RH  050%=      5-min Rain = 0
KCL1 210939Z 26011KT 08/M02 A2995 RMK A01 T00811017  RH  050%=      5-min Rain = 0
KCL1 210940Z 26011KT 08/M02 A2995 RMK A01 T00811017  RH  050%=      5-min Rain = 0
KCL1 210941Z 26011KT 08/M02 A2995 RMK A01 T00811017  RH  050%=      5-min Rain = 0
KCL1 210942Z 26014KT 08/M02 A2995 RMK A01 T00811017  RH  050%=      5-min Rain = 0
KCL1 210943Z 26010KT 08/M02 A2995 RMK A01 T00811017  RH  050%=      5-min Rain = 0
KCL1 210944Z 26013KT 08/M02 A2995 RMK A01 T00811017  RH  050%=      5-min Rain = 0
KCL1 210945Z 27013G18KT 08/M02 A2995 RMK A01 T00811017  RH  050%=      5-min Rain = 0
KCL1 210946Z 26012KT 08/M02 A2995 RMK A01 T00811017  RH  050%=      5-min Rain = 0
KCL1 210947Z 26010KT 08/M02 A2995 RMK A01 T00811017  RH  050%=      5-min Rain = 0
KCL1 210948Z 26011KT 08/M02 A2995 RMK A01 T00801017  RH  050%=      5-min Rain = 0
KCL1 210949Z 27008KT 08/M02 A2995 RMK A01 T00801017  RH  050%=      5-min Rain = 0
KCL1 210950Z 26007KT 08/M02 A2995 RMK A01 T00791017  RH  051%=      5-min Rain = 0
KCL1 210951Z 26009KT 08/M02 A2995 RMK A01 T00791017  RH  051%=      5-min Rain = 0
KCL1 210952Z 26008KT 08/M02 A2995 RMK A01 T00781017  RH  051%=      5-min Rain = 0
KCL1 210953Z 27005KT 08/M02 A2995 RMK A01 T00781017  RH  051%=      5-min Rain = 0
KCL1 210954Z 28005KT 08/M02 A2995 RMK A01 T00771017  RH  051%=      5-min Rain = 0
KCL1 210955Z 29006G11KT 08/M02 A2995 RMK A01 T00771017  RH  051%=      5-min Rain = 0
KCL1 210956Z 28010KT 08/M02 A2995 RMK A01 T00761017  RH  052%=      5-min Rain = 0
KCL1 210957Z 28009KT 08/M02 A2995 RMK A01 T00761017  RH  052%=      5-min Rain = 0
KCL1 210958Z 28008KT 08/M02 A2995 RMK A01 T00761017  RH  052%=      5-min Rain = 0
KCL1 210959Z 28010KT 08/M02 A2995 RMK A01 T00761017  RH  052%=      5-min Rain = 0
KCL1 211000Z 28011KT 08/M02 A2995 RMK A01 T00761017  RH  052%=      5-min Rain = 0
KCL1 211001Z 28008KT 08/M02 A2995 RMK A01 T00751017  RH  052%=      5-min Rain = 0
KCL1 211002Z 28010G15KT 08/M02 A2995 RMK A01 T00751017  RH  052%=      5-min Rain = 0
KCL1 211003Z 29008KT 08/M02 A2995 RMK A01 T00751017  RH  052%=      5-min Rain = 0
KCL1 211004Z 28011KT 07/M02 A2995 RMK A01 T00741017  RH  052%=      5-min Rain = 0
KCL1 211005Z 30011KT 07/M02 A2995 RMK A01 T00741017  RH  052%=      5-min Rain = 0
KCL1 211006Z 29012KT 07/M02 A2996 RMK A01 T00741017  RH  052%=      5-min Rain = 0
KCL1 211007Z 29012KT 07/M02 A2996 RMK A01 T00731017  RH  052%=      5-min Rain = 0
KCL1 211008Z 29013KT 07/M02 A2995 RMK A01 T00731017  RH  053%=      5-min Rain = 0
KCL1 211009Z 29013KT 07/M02 A2995 RMK A01 T00731017  RH  053%=      5-min Rain = 0
KCL1 211010Z 28014KT 07/M02 A2995 RMK A01 T00731017  RH  053%=      5-min Rain = 0
KCL1 211011Z 28013G18KT 07/M02 A2995 RMK A01 T00731017  RH  053%=      5-min Rain = 0
KCL1 211012Z 28013KT 07/M02 A2994 RMK A01 T00731017  RH  053%=      5-min Rain = 0
KCL1 211013Z 29012KT 07/M02 A2994 RMK A01 T00721018  RH  053%=      5-min Rain = 0
KCL1 211014Z 29012KT 07/M02 A2994 RMK A01 T00721017  RH  053%=      5-min Rain = 0
KCL1 211015Z 29010G15KT 07/M02 A2995 RMK A01 T00721017  RH  053%=      5-min Rain = 0
KCL1 211016Z 29010KT 07/M02 A2995 RMK A01 T00711018  RH  053%=      5-min Rain = 0
KCL1 211017Z 29008KT 07/M02 A2995 RMK A01 T00701018  RH  054%=      5-min Rain = 0
KCL1 211018Z 28010KT 07/M02 A2995 RMK A01 T00701018  RH  054%=      5-min Rain = 0
KCL1 211019Z 28009KT 07/M02 A2995 RMK A01 T00691018  RH  054%=      5-min Rain = 0
KCL1 211020Z 28009KT 07/M02 A2995 RMK A01 T00691017  RH  054%=      5-min Rain = 0
KCL1 211021Z 27010KT 07/M02 A2995 RMK A01 T00681018  RH  054%=      5-min Rain = 0
KCL1 211022Z 28009KT 07/M02 A2995 RMK A01 T00681017  RH  054%=      5-min Rain = 0
KCL1 211023Z 27009KT 07/M02 A2995 RMK A01 T00681017  RH  054%=      5-min Rain = 0
KCL1 211024Z 28008KT 07/M02 A2995 RMK A01 T00681017  RH  054%=      5-min Rain = 0
KCL1 211025Z 28009KT 07/M02 A2994 RMK A01 T00681018  RH  054%=      5-min Rain = 0
KCL1 211026Z 28011KT 07/M02 A2994 RMK A01 T00681018  RH  054%=      5-min Rain = 0
KCL1 211027Z 28010KT 07/M02 A2994 RMK A01 T00681018  RH  054%=      5-min Rain = 0
KCL1 211028Z 28009G14KT 07/M02 A2994 RMK A01 T00681018  RH  054%=      5-min Rain = 0
KCL1 211029Z 28011G16KT 07/M02 A2994 RMK A01 T00681018  RH  054%=      5-min Rain = 0
KCL1 211030Z 29008KT 07/M02 A2994 RMK A01 T00681018  RH  054%=      5-min Rain = 0
KCL1 211031Z 28008G13KT 07/M02 A2994 RMK A01 T00681018  RH  054%=      5-min Rain = 0
KCL1 211032Z 28007KT 07/M02 A2994 RMK A01 T00681018  RH  054%=      5-min Rain = 0
KCL1 211033Z 28009KT 07/M02 A2994 RMK A01 T00681018  RH  054%=      5-min Rain = 0
KCL1 211034Z 29007KT 07/M02 A2994 RMK A01 T00681018  RH  054%=      5-min Rain = 0
KCL1 211035Z 28008KT 07/M02 A2994 RMK A01 T00681018  RH  054%=      5-min Rain = 0
KCL1 211036Z 28009KT 07/M02 A2994 RMK A01 T00681018  RH  054%=      5-min Rain = 0
KCL1 211037Z 28009G14KT 07/M02 A2994 RMK A01 T00681019  RH  054%=      5-min Rain = 0
KCL1 211038Z 28007KT 07/M02 A2994 RMK A01 T00681018  RH  054%=      5-min Rain = 0
KCL1 211039Z 29012KT 07/M02 A2994 RMK A01 T00681018  RH  054%=      5-min Rain = 0
KCL1 211040Z 28008KT 07/M02 A2994 RMK A01 T00691019  RH  054%=      5-min Rain = 0
KCL1 211041Z 29011KT 07/M02 A2994 RMK A01 T00691019  RH  054%=      5-min Rain = 0
KCL1 211042Z 29010KT 07/M02 A2994 RMK A01 T00691019  RH  054%=      5-min Rain = 0
KCL1 211043Z 30009KT 07/M02 A2994 RMK A01 T00691019  RH  053%=      5-min Rain = 0
KCL1 211044Z 30008KT 07/M02 A2994 RMK A01 T00691019  RH  053%=      5-min Rain = 0
KCL1 211045Z 30011KT 07/M02 A2994 RMK A01 T00691019  RH  053%=      5-min Rain = 0
KCL1 211046Z 30009KT 07/M02 A2994 RMK A01 T00701019  RH  053%=      5-min Rain = 0
KCL1 211047Z 30010KT 07/M02 A2994 RMK A01 T00691019  RH  053%=      5-min Rain = 0
KCL1 211048Z 30009KT 07/M02 A2994 RMK A01 T00691019  RH  053%=      5-min Rain = 0
KCL1 211049Z 29009KT 07/M02 A2994 RMK A01 T00691019  RH  053%=      5-min Rain = 0
KCL1 211050Z 30008KT 07/M02 A2994 RMK A01 T00691019  RH  053%=      5-min Rain = 0
KCL1 211051Z 29008KT 07/M02 A2994 RMK A01 T00691019  RH  053%=      5-min Rain = 0
KCL1 211052Z 29011KT 07/M02 A2994 RMK A01 T00691019  RH  053%=      5-min Rain = 0
KCL1 211053Z 29010KT 07/M02 A2994 RMK A01 T00701019  RH  053%=      5-min Rain = 0
KCL1 211054Z 29011KT 07/M02 A2994 RMK A01 T00701020  RH  053%=      5-min Rain = 0
KCL1 211055Z 29008KT 07/M02 A2994 RMK A01 T00701019  RH  053%=      5-min Rain = 0
KCL1 211056Z 29011KT 07/M02 A2994 RMK A01 T00701019  RH  053%=      5-min Rain = 0
KCL1 211057Z 29010KT 07/M02 A2994 RMK A01 T00711020  RH  053%=      5-min Rain = 0
KCL1 211058Z 29009KT 07/M02 A2994 RMK A01 T00711020  RH  052%=      5-min Rain = 0
KCL1 211059Z 28010KT 07/M02 A2994 RMK A01 T00711020  RH  052%=      5-min Rain = 0
KCL1 211100Z 28009KT 07/M02 A2994 RMK A01 T00711020  RH  052%=      5-min Rain = 0
KCL1 211101Z 28008KT 07/M02 A2994 RMK A01 T00711020  RH  052%=      5-min Rain = 0
KCL1 211102Z 28008KT 07/M02 A2994 RMK A01 T00711020  RH  052%=      5-min Rain = 0
KCL1 211103Z 28009KT 07/M02 A2994 RMK A01 T00711020  RH  053%=      5-min Rain = 0
KCL1 211104Z 28009KT 07/M02 A2994 RMK A01 T00711020  RH  052%=      5-min Rain = 0
KCL1 211105Z 29008KT 07/M02 A2994 RMK A01 T00711020  RH  052%=      5-min Rain = 0
KCL1 211106Z 29007KT 07/M02 A2994 RMK A01 T00711020  RH  052%=      5-min Rain = 0
KCL1 211107Z 28007KT 07/M02 A2994 RMK A01 T00711020  RH  052%=      5-min Rain = 0
KCL1 211108Z 28008KT 07/M02 A2994 RMK A01 T00711020  RH  053%=      5-min Rain = 0
KCL1 211109Z 28007KT 07/M02 A2994 RMK A01 T00701020  RH  053%=      5-min Rain = 0
KCL1 211110Z 28006KT 07/M02 A2994 RMK A01 T00701020  RH  053%=      5-min Rain = 0
KCL1 211111Z 29007KT 07/M02 A2994 RMK A01 T00701020  RH  053%=      5-min Rain = 0
KCL1 211112Z 28008KT 07/M02 A2994 RMK A01 T00701020  RH  053%=      5-min Rain = 0
KCL1 211113Z 28008KT 07/M02 A2994 RMK A01 T00701020  RH  053%=      5-min Rain = 0
KCL1 211114Z 28008KT 07/M02 A2994 RMK A01 T00701020  RH  052%=      5-min Rain = 0
KCL1 211115Z 29007KT 07/M02 A2994 RMK A01 T00711020  RH  052%=      5-min Rain = 0
KCL1 211116Z 28008KT 07/M02 A2994 RMK A01 T00711020  RH  052%=      5-min Rain = 0
KCL1 211117Z 28007KT 07/M02 A2994 RMK A01 T00711020  RH  052%=      5-min Rain = 0
KCL1 211118Z 29008KT 07/M02 A2994 RMK A01 T00701020  RH  053%=      5-min Rain = 0
KCL1 211119Z 29008KT 07/M02 A2994 RMK A01 T00701021  RH  053%=      5-min Rain = 0
KCL1 211120Z 29008KT 07/M02 A2994 RMK A01 T00691020  RH  053%=      5-min Rain = 0
KCL1 211121Z 30008KT 07/M02 A2994 RMK A01 T00691021  RH  053%=      5-min Rain = 0
KCL1 211122Z 29008KT 07/M02 A2994 RMK A01 T00691021  RH  053%=      5-min Rain = 0
KCL1 211123Z 29009KT 07/M02 A2994 RMK A01 T00691020  RH  053%=      5-min Rain = 0
KCL1 211124Z 29010KT 07/M02 A2994 RMK A01 T00691020  RH  053%=      5-min Rain = 0
KCL1 211125Z 29010KT 07/M02 A2994 RMK A01 T00681021  RH  053%=      5-min Rain = 0
KCL1 211126Z 29009KT 07/M02 A2994 RMK A01 T00681021  RH  053%=      5-min Rain = 0
KCL1 211127Z 29010KT 07/M02 A2993 RMK A01 T00681021  RH  053%=      5-min Rain = 0
KCL1 211128Z 29009KT 07/M02 A2993 RMK A01 T00681021  RH  053%=      5-min Rain = 0
KCL1 211129Z 29008KT 07/M02 A2993 RMK A01 T00681021  RH  053%=      5-min Rain = 0
KCL1 211130Z 29007KT 07/M02 A2993 RMK A01 T00681021  RH  053%=      5-min Rain = 0
KCL1 211131Z 29009KT 07/M02 A2993 RMK A01 T00681021  RH  053%=      5-min Rain = 0
KCL1 211132Z 29009KT 07/M02 A2993 RMK A01 T00671021  RH  053%=      5-min Rain = 0
KCL1 211133Z 28009KT 07/M02 A2993 RMK A01 T00671021  RH  053%=      5-min Rain = 0
KCL1 211134Z 28009KT 07/M02 A2993 RMK A01 T00671021  RH  053%=      5-min Rain = 0
KCL1 211135Z 28009KT 07/M02 A2993 RMK A01 T00671021  RH  053%=      5-min Rain = 0
KCL1 211136Z 28009KT 07/M02 A2993 RMK A01 T00671021  RH  053%=      5-min Rain = 0
KCL1 211137Z 28009KT 07/M02 A2993 RMK A01 T00671021  RH  053%=      5-min Rain = 0
KCL1 211138Z 28008KT 07/M02 A2993 RMK A01 T00671021  RH  053%=      5-min Rain = 0
KCL1 211139Z 29009KT 07/M02 A2994 RMK A01 T00671021  RH  053%=      5-min Rain = 0
KCL1 211140Z 28010KT 07/M02 A2994 RMK A01 T00671021  RH  053%=      5-min Rain = 0
KCL1 211141Z 29009KT 07/M02 A2994 RMK A01 T00681021  RH  053%=      5-min Rain = 0
KCL1 211142Z 28010KT 07/M02 A2994 RMK A01 T00681021  RH  053%=      5-min Rain = 0
KCL1 211143Z 29008KT 07/M02 A2994 RMK A01 T00681022  RH  053%=      5-min Rain = 0
KCL1 211144Z 28008KT 07/M02 A2994 RMK A01 T00681022  RH  053%=      5-min Rain = 0
KCL1 211145Z 29010KT 07/M02 A2994 RMK A01 T00681022  RH  053%=      5-min Rain = 0
KCL1 211146Z 28009KT 07/M02 A2994 RMK A01 T00671022  RH  053%=      5-min Rain = 0
KCL1 211147Z 28010KT 07/M02 A2994 RMK A01 T00681022  RH  053%=      5-min Rain = 0
KCL1 211148Z 28009KT 07/M02 A2994 RMK A01 T00681022  RH  053%=      5-min Rain = 0
KCL1 211149Z 29009KT 07/M02 A2994 RMK A01 T00681022  RH  053%=      5-min Rain = 0
KCL1 211150Z 28011KT 07/M02 A2993 RMK A01 T00681022  RH  053%=      5-min Rain = 0
KCL1 211151Z 28011KT 07/M02 A2993 RMK A01 T00691022  RH  052%=      5-min Rain = 0
KCL1 211152Z 28011KT 07/M02 A2994 RMK A01 T00701022  RH  052%=      5-min Rain = 0
KCL1 211153Z 28010KT 07/M02 A2994 RMK A01 T00701022  RH  052%=      5-min Rain = 0
KCL1 211154Z 28011KT 07/M02 A2994 RMK A01 T00701022  RH  052%=      5-min Rain = 0
KCL1 211155Z 28009KT 07/M02 A2994 RMK A01 T00701022  RH  052%=      5-min Rain = 0
KCL1 211156Z 28009KT 07/M02 A2994 RMK A01 T00701022  RH  052%=      5-min Rain = 0
KCL1 211157Z 28009KT 07/M02 A2994 RMK A01 T00691022  RH  052%=      5-min Rain = 0
KCL1 211158Z 28009KT 07/M02 A2994 RMK A01 T00701022  RH  052%=      5-min Rain = 0
KCL1 211159Z 27011G17KT 07/M02 A2994 RMK A01 T00701022  RH  052%=      5-min Rain = 0
KCL1 211200Z 27012KT 07/M02 A2994 RMK A01 T00721022  RH  051%=      5-min Rain = 0
KCL1 211201Z 27012KT 07/M02 A2994 RMK A01 T00741022  RH  050%=      5-min Rain = 0
KCL1 211202Z 27011G16KT 08/M02 A2994 RMK A01 T00751022  RH  050%=      5-min Rain = 0
KCL1 211203Z 28012G17KT 08/M02 A2994 RMK A01 T00751022  RH  050%=      5-min Rain = 0
KCL1 211204Z 27011KT 08/M02 A2994 RMK A01 T00751023  RH  050%=      5-min Rain = 0
KCL1 211205Z 27010KT 07/M02 A2994 RMK A01 T00741023  RH  050%=      5-min Rain = 0
KCL1 211206Z 28010KT 07/M02 A2993 RMK A01 T00741023  RH  050%=      5-min Rain = 0
KCL1 211207Z 28009KT 07/M02 A2993 RMK A01 T00741023  RH  050%=      5-min Rain = 0
KCL1 211208Z 28009KT 07/M02 A2993 RMK A01 T00731022  RH  051%=      5-min Rain = 0
KCL1 211209Z 27011KT 07/M02 A2993 RMK A01 T00731023  RH  051%=      5-min Rain = 0
KCL1 211210Z 28010G15KT 07/M02 A2993 RMK A01 T00741023  RH  050%=      5-min Rain = 0
KCL1 211211Z 28011KT 07/M02 A2993 RMK A01 T00731023  RH  050%=      5-min Rain = 0
KCL1 211212Z 28011KT 07/M02 A2993 RMK A01 T00741023  RH  050%=      5-min Rain = 0
KCL1 211213Z 28010KT 07/M02 A2993 RMK A01 T00741023  RH  050%=      5-min Rain = 0
KCL1 211214Z 28011KT 07/M02 A2993 RMK A01 T00741023  RH  050%=      5-min Rain = 0
KCL1 211215Z 29012KT 07/M02 A2993 RMK A01 T00741023  RH  050%=      5-min Rain = 0
KCL1 211216Z 29012KT 07/M02 A2993 RMK A01 T00741023  RH  050%=      5-min Rain = 0
KCL1 211217Z 28011KT 07/M02 A2993 RMK A01 T00741023  RH  050%=      5-min Rain = 0
KCL1 211218Z 29011KT 07/M02 A2993 RMK A01 T00731022  RH  051%=      5-min Rain = 0
KCL1 211219Z 29013KT 07/M02 A2993 RMK A01 T00731023  RH  051%=      5-min Rain = 0
KCL1 211220Z 28012G18KT 07/M02 A2993 RMK A01 T00731023  RH  051%=      5-min Rain = 0
KCL1 211221Z 28014KT 07/M02 A2993 RMK A01 T00731023  RH  051%=      5-min Rain = 0
KCL1 211222Z 28013KT 07/M02 A2993 RMK A01 T00731023  RH  050%=      5-min Rain = 0
KCL1 211223Z 28013KT 07/M02 A2993 RMK A01 T00741023  RH  050%=      5-min Rain = 0
KCL1 211224Z 28010KT 08/M02 A2993 RMK A01 T00751023  RH  050%=      5-min Rain = 0
KCL1 211225Z 28010KT 07/M02 A2993 RMK A01 T00741023  RH  050%=      5-min Rain = 0
KCL1 211226Z 27008KT 07/M02 A2994 RMK A01 T00741023  RH  050%=      5-min Rain = 0
KCL1 211227Z 27010KT 07/M02 A2994 RMK A01 T00741023  RH  050%=      5-min Rain = 0
KCL1 211228Z 26009KT 07/M02 A2994 RMK A01 T00731023  RH  050%=      5-min Rain = 0
KCL1 211229Z 27007KT 07/M02 A2994 RMK A01 T00731023  RH  051%=      5-min Rain = 0
KCL1 211230Z 26010KT 07/M02 A2994 RMK A01 T00731022  RH  051%=      5-min Rain = 0
KCL1 211231Z 27009KT 07/M02 A2994 RMK A01 T00731022  RH  051%=      5-min Rain = 0
KCL1 211232Z 28008G13KT 07/M02 A2994 RMK A01 T00731023  RH  051%=      5-min Rain = 0
KCL1 211233Z 27008KT 07/M02 A2994 RMK A01 T00731022  RH  051%=      5-min Rain = 0
KCL1 211234Z 27008KT 07/M02 A2994 RMK A01 T00731022  RH  051%=      5-min Rain = 0
KCL1 211235Z 26010KT 07/M02 A2994 RMK A01 T00721023  RH  051%=      5-min Rain = 0
KCL1 211236Z 26009KT 07/M02 A2994 RMK A01 T00731023  RH  051%=      5-min Rain = 0
KCL1 211237Z 26011KT 07/M02 A2994 RMK A01 T00731023  RH  050%=      5-min Rain = 0
KCL1 211238Z 27010KT 07/M02 A2994 RMK A01 T00741023  RH  050%=      5-min Rain = 0
KCL1 211239Z 27009G14KT 07/M02 A2995 RMK A01 T00741023  RH  050%=      5-min Rain = 0
KCL1 211240Z 28011KT 07/M02 A2995 RMK A01 T00731023  RH  050%=      5-min Rain = 0
KCL1 211241Z 27010KT 07/M02 A2995 RMK A01 T00731023  RH  050%=      5-min Rain = 0
KCL1 211242Z 27008KT 07/M02 A2995 RMK A01 T00741023  RH  050%=      5-min Rain = 0
KCL1 211243Z 27009KT 07/M02 A2994 RMK A01 T00731023  RH  050%=      5-min Rain = 0
KCL1 211244Z 27009G15KT 07/M02 A2995 RMK A01 T00731023  RH  050%=      5-min Rain = 0
KCL1 211245Z 28008KT 07/M02 A2994 RMK A01 T00731023  RH  051%=      5-min Rain = 0
KCL1 211246Z 28008KT 07/M02 A2995 RMK A01 T00731023  RH  051%=      5-min Rain = 0
KCL1 211247Z 28007KT 07/M02 A2995 RMK A01 T00731023  RH  051%=      5-min Rain = 0
KCL1 211248Z 28011KT 07/M02 A2995 RMK A01 T00721023  RH  051%=      5-min Rain = 0
KCL1 211249Z 28011KT 07/M02 A2995 RMK A01 T00721023  RH  051%=      5-min Rain = 0
KCL1 211250Z 28010KT 07/M02 A2995 RMK A01 T00721023  RH  051%=      5-min Rain = 0
KCL1 211251Z 29010KT 07/M02 A2995 RMK A01 T00721023  RH  051%=      5-min Rain = 0
KCL1 211252Z 29011KT 07/M02 A2995 RMK A01 T00721023  RH  051%=      5-min Rain = 0
KCL1 211253Z 29011KT 07/M02 A2995 RMK A01 T00721023  RH  051%=      5-min Rain = 0
KCL1 211254Z 28009KT 07/M02 A2995 RMK A01 T00721023  RH  051%=      5-min Rain = 0
KCL1 211255Z 28011KT 07/M02 A2995 RMK A01 T00721023  RH  051%=      5-min Rain = 0
KCL1 211256Z 28009KT 07/M02 A2995 RMK A01 T00721023  RH  051%=      5-min Rain = 0
KCL1 211257Z 29010KT 07/M02 A2995 RMK A01 T00721023  RH  051%=      5-min Rain = 0
KCL1 211258Z 30010KT 07/M02 A2995 RMK A01 T00721023  RH  051%=      5-min Rain = 0
KCL1 211259Z 30010KT 07/M02 A2995 RMK A01 T00721023  RH  051%=      5-min Rain = 0
KCL1 211300Z 31010KT 07/M02 A2995 RMK A01 T00721023  RH  051%=      5-min Rain = 0
KCL1 211301Z 31010KT 07/M02 A2995 RMK A01 T00711023  RH  051%=      5-min Rain = 0
KCL1 211302Z 31011KT 07/M02 A2995 RMK A01 T00701023  RH  052%=      5-min Rain = 0
KCL1 211303Z 31010KT 07/M02 A2995 RMK A01 T00691023  RH  052%=      5-min Rain = 0
KCL1 211304Z 30009KT 07/M02 A2995 RMK A01 T00691023  RH  052%=      5-min Rain = 0
KCL1 211305Z 29010KT 07/M02 A2994 RMK A01 T00681023  RH  052%=      5-min Rain = 0
KCL1 211306Z 30009KT 07/M02 A2994 RMK A01 T00681022  RH  052%=      5-min Rain = 0
KCL1 211307Z 30009KT 07/M02 A2994 RMK A01 T00681023  RH  052%=      5-min Rain = 0
KCL1 211308Z 29010KT 07/M02 A2994 RMK A01 T00681022  RH  053%=      5-min Rain = 0
KCL1 211309Z 30010KT 07/M02 A2994 RMK A01 T00681022  RH  053%=      5-min Rain = 0
KCL1 211310Z 29012KT 07/M02 A2994 RMK A01 T00681022  RH  053%=      5-min Rain = 0
KCL1 211311Z 29013KT 07/M02 A2994 RMK A01 T00681023  RH  052%=      5-min Rain = 0
KCL1 211312Z 30013KT 07/M02 A2994 RMK A01 T00691023  RH  052%=      5-min Rain = 0
KCL1 211313Z 29012G17KT 07/M02 A2994 RMK A01 T00691023  RH  052%=      5-min Rain = 0
KCL1 211314Z 29013KT 07/M02 A2994 RMK A01 T00701023  RH  052%=      5-min Rain = 0
KCL1 211315Z 29013KT 07/M02 A2994 RMK A01 T00701023  RH  051%=      5-min Rain = 0
KCL1 211316Z 29012KT 07/M02 A2994 RMK A01 T00711023  RH  051%=      5-min Rain = 0
KCL1 211317Z 29010G15KT 07/M02 A2994 RMK A01 T00701023  RH  051%=      5-min Rain = 0
KCL1 211318Z 29011KT 07/M02 A2994 RMK A01 T00701023  RH  052%=      5-min Rain = 0
KCL1 211319Z 29012KT 07/M02 A2994 RMK A01 T00691023  RH  052%=      5-min Rain = 0
KCL1 211320Z 29013KT 07/M02 A2994 RMK A01 T00691023  RH  052%=      5-min Rain = 0
KCL1 211321Z 29012G17KT 07/M02 A2994 RMK A01 T00691023  RH  052%=      5-min Rain = 0
KCL1 211322Z 29012KT 07/M02 A2994 RMK A01 T00701023  RH  052%=      5-min Rain = 0
KCL1 211323Z 29012G17KT 07/M02 A2994 RMK A01 T00701023  RH  052%=      5-min Rain = 0
KCL1 211324Z 30011KT 07/M02 A2994 RMK A01 T00701023  RH  052%=      5-min Rain = 0
KCL1 211325Z 30011KT 07/M02 A2994 RMK A01 T00701022  RH  052%=      5-min Rain = 0
KCL1 211326Z 30012KT 07/M02 A2994 RMK A01 T00701022  RH  052%=      5-min Rain = 0
KCL1 211327Z 30013KT 07/M02 A2994 RMK A01 T00701023  RH  052%=      5-min Rain = 0
KCL1 211328Z 30012KT 07/M02 A2994 RMK A01 T00691023  RH  052%=      5-min Rain = 0
KCL1 211329Z 30011KT 07/M02 A2994 RMK A01 T00691022  RH  052%=      5-min Rain = 0
KCL1 211330Z 30013G19KT 07/M02 A2994 RMK A01 T00691022  RH  052%=      5-min Rain = 0
KCL1 211331Z 31011G17KT 07/M02 A2994 RMK A01 T00691022  RH  052%=      5-min Rain = 0
KCL1 211332Z 31011KT 07/M02 A2994 RMK A01 T00691022  RH  052%=      5-min Rain = 0
KCL1 211333Z 31010KT 07/M02 A2994 RMK A01 T00681022  RH  052%=      5-min Rain = 0
KCL1 211334Z 30010KT 07/M02 A2994 RMK A01 T00681022  RH  053%=      5-min Rain = 0
KCL1 211335Z 30013KT 07/M02 A2994 RMK A01 T00671023  RH  053%=      5-min Rain = 0
KCL1 211336Z 30011KT 07/M02 A2994 RMK A01 T00671022  RH  053%=      5-min Rain = 0
KCL1 211337Z 30011KT 07/M02 A2994 RMK A01 T00671022  RH  053%=      5-min Rain = 0
KCL1 211338Z 30010KT 07/M02 A2995 RMK A01 T00681022  RH  053%=      5-min Rain = 0
KCL1 211339Z 30012KT 07/M02 A2995 RMK A01 T00681022  RH  053%=      5-min Rain = 0
KCL1 211340Z 30011KT 07/M02 A2995 RMK A01 T00681022  RH  053%=      5-min Rain = 0
KCL1 211341Z 30011KT 07/M02 A2995 RMK A01 T00681022  RH  053%=      5-min Rain = 0
KCL1 211342Z 30012KT 07/M02 A2995 RMK A01 T00681022  RH  053%=      5-min Rain = 0
KCL1 211343Z 30010KT 07/M02 A2995 RMK A01 T00681022  RH  053%=      5-min Rain = 0
KCL1 211344Z 30010KT 07/M02 A2995 RMK A01 T00681022  RH  053%=      5-min Rain = 0
KCL1 211345Z 30010KT 07/M02 A2995 RMK A01 T00681022  RH  053%=      5-min Rain = 0
KCL1 211346Z 30010KT 07/M02 A2995 RMK A01 T00681022  RH  053%=      5-min Rain = 0
KCL1 211347Z 29010KT 07/M02 A2995 RMK A01 T00681022  RH  053%=      5-min Rain = 0
KCL1 211348Z 30012KT 07/M02 A2995 RMK A01 T00671022  RH  053%=      5-min Rain = 0
KCL1 211349Z 30012KT 07/M02 A2995 RMK A01 T00681022  RH  053%=      5-min Rain = 0
KCL1 211350Z 29011KT 07/M02 A2995 RMK A01 T00681022  RH  053%=      5-min Rain = 0
KCL1 211351Z 30011G16KT 07/M02 A2995 RMK A01 T00691022  RH  053%=      5-min Rain = 0
KCL1 211352Z 30010KT 07/M02 A2995 RMK A01 T00691022  RH  053%=      5-min Rain = 0
KCL1 211353Z 30011KT 07/M02 A2994 RMK A01 T00681022  RH  053%=      5-min Rain = 0
KCL1 211354Z 30011KT 07/M02 A2994 RMK A01 T00691022  RH  052%=      5-min Rain = 0
KCL1 211355Z 30009KT 07/M02 A2994 RMK A01 T00691022  RH  052%=      5-min Rain = 0
KCL1 211356Z 30010KT 07/M02 A2994 RMK A01 T00691022  RH  052%=      5-min Rain = 0
KCL1 211357Z 30011KT 07/M02 A2994 RMK A01 T00691022  RH  052%=      5-min Rain = 0
KCL1 211358Z 30010KT 07/M02 A2994 RMK A01 T00691022  RH  052%=      5-min Rain = 0
KCL1 211359Z 30011KT 07/M02 A2994 RMK A01 T00691022  RH  052%=      5-min Rain = 0
KCL1 211400Z 30010KT 07/M02 A2994 RMK A01 T00691022  RH  052%=      5-min Rain = 0
KCL1 211401Z 30009KT 07/M02 A2994 RMK A01 T00691022  RH  052%=      5-min Rain = 0
KCL1 211402Z 30010KT 07/M02 A2994 RMK A01 T00691022  RH  052%=      5-min Rain = 0
KCL1 211403Z 30010KT 07/M02 A2994 RMK A01 T00691022  RH  052%=      5-min Rain = 0
KCL1 211404Z 31009KT 07/M02 A2994 RMK A01 T00691022  RH  052%=      5-min Rain = 0
KCL1 211405Z 31010KT 07/M02 A2994 RMK A01 T00691022  RH  052%=      5-min Rain = 0
KCL1 211406Z 31010KT 07/M02 A2994 RMK A01 T00681022  RH  053%=      5-min Rain = 0
KCL1 211407Z 30011KT 07/M02 A2994 RMK A01 T00681022  RH  053%=      5-min Rain = 0
KCL1 211408Z 30010KT 07/M02 A2994 RMK A01 T00681022  RH  053%=      5-min Rain = 0
KCL1 211409Z 29009KT 07/M02 A2994 RMK A01 T00671022  RH  053%=      5-min Rain = 0
KCL1 211410Z 29011KT 07/M02 A2994 RMK A01 T00671022  RH  053%=      5-min Rain = 0
KCL1 211411Z 29010KT 07/M02 A2994 RMK A01 T00671022  RH  053%=      5-min Rain = 0
KCL1 211412Z 29009KT 07/M02 A2994 RMK A01 T00681022  RH  053%=      5-min Rain = 0
KCL1 211413Z 30010KT 07/M02 A2994 RMK A01 T00681022  RH  053%=      5-min Rain = 0
KCL1 211414Z 30009KT 07/M02 A2994 RMK A01 T00681022  RH  053%=      5-min Rain = 0
KCL1 211415Z 30009KT 07/M02 A2994 RMK A01 T00681022  RH  052%=      5-min Rain = 0
KCL1 211416Z 30008KT 07/M02 A2995 RMK A01 T00681022  RH  053%=      5-min Rain = 0
KCL1 211417Z 31009KT 07/M02 A2995 RMK A01 T00681022  RH  053%=      5-min Rain = 0
KCL1 211418Z 31008KT 07/M02 A2995 RMK A01 T00681021  RH  053%=      5-min Rain = 0
KCL1 211419Z 30009KT 07/M02 A2995 RMK A01 T00681021  RH  053%=      5-min Rain = 0
KCL1 211420Z 29010KT 07/M02 A2994 RMK A01 T00671022  RH  053%=      5-min Rain = 0
KCL1 211421Z 29011KT 07/M02 A2994 RMK A01 T00671022  RH  053%=      5-min Rain = 0
KCL1 211422Z 28009KT 07/M02 A2994 RMK A01 T00681022  RH  053%=      5-min Rain = 0
KCL1 211423Z 29012KT 07/M02 A2995 RMK A01 T00681021  RH  053%=      5-min Rain = 0
KCL1 211424Z 29010KT 07/M02 A2995 RMK A01 T00691022  RH  053%=      5-min Rain = 0
KCL1 211425Z 29010KT 07/M02 A2995 RMK A01 T00691022  RH  052%=      5-min Rain = 0
KCL1 211426Z 29010KT 07/M02 A2995 RMK A01 T00691022  RH  052%=      5-min Rain = 0
KCL1 211427Z 29009KT 07/M02 A2995 RMK A01 T00691022  RH  052%=      5-min Rain = 0
KCL1 211428Z 29008KT 07/M02 A2995 RMK A01 T00691022  RH  052%=      5-min Rain = 0
KCL1 211429Z 29009KT 07/M02 A2995 RMK A01 T00691022  RH  052%=      5-min Rain = 0
KCL1 211430Z 29009KT 07/M02 A2995 RMK A01 T00691022  RH  052%=      5-min Rain = 0
KCL1 211431Z 29008KT 07/M02 A2995 RMK A01 T00691022  RH  052%=      5-min Rain = 0
KCL1 211432Z 28009KT 07/M02 A2995 RMK A01 T00691022  RH  052%=      5-min Rain = 0
KCL1 211433Z 29010KT 07/M02 A2995 RMK A01 T00691021  RH  053%=      5-min Rain = 0
KCL1 211434Z 29008KT 07/M02 A2995 RMK A01 T00691022  RH  052%=      5-min Rain = 0
KCL1 211435Z 28009KT 07/M02 A2994 RMK A01 T00691022  RH  052%=      5-min Rain = 0
KCL1 211436Z 29010KT 07/M02 A2994 RMK A01 T00691022  RH  052%=      5-min Rain = 0
KCL1 211437Z 29011KT 07/M02 A2994 RMK A01 T00691022  RH  052%=      5-min Rain = 0
KCL1 211438Z 28008G13KT 07/M02 A2994 RMK A01 T00691022  RH  052%=      5-min Rain = 0
KCL1 211439Z 29008KT 07/M02 A2994 RMK A01 T00691021  RH  052%=      5-min Rain = 0
KCL1 211440Z 29008KT 07/M02 A2994 RMK A01 T00691021  RH  052%=      5-min Rain = 0
KCL1 211441Z 29009KT 07/M02 A2994 RMK A01 T00691021  RH  053%=      5-min Rain = 0
KCL1 211442Z 29008KT 07/M02 A2994 RMK A01 T00691021  RH  053%=      5-min Rain = 0
KCL1 211443Z 29009KT 07/M02 A2995 RMK A01 T00691021  RH  053%=      5-min Rain = 0
KCL1 211444Z 29010KT 07/M02 A2995 RMK A01 T00691021  RH  053%=      5-min Rain = 0
KCL1 211445Z 29010KT 07/M02 A2995 RMK A01 T00681021  RH  053%=      5-min Rain = 0
KCL1 211446Z 29008KT 07/M02 A2995 RMK A01 T00681021  RH  053%=      5-min Rain = 0
KCL1 211447Z 28009KT 07/M02 A2995 RMK A01 T00691020  RH  053%=      5-min Rain = 0
KCL1 211448Z 28008KT 07/M02 A2995 RMK A01 T00681021  RH  053%=      5-min Rain = 0
KCL1 211449Z 28009KT 07/M02 A2995 RMK A01 T00681020  RH  053%=      5-min Rain = 0
KCL1 211450Z 29008KT 07/M02 A2995 RMK A01 T00681020  RH  053%=      5-min Rain = 0
KCL1 211451Z 29007KT 07/M02 A2995 RMK A01 T00681020  RH  053%=      5-min Rain = 0
KCL1 211452Z 30007KT 07/M02 A2995 RMK A01 T00681020  RH  054%=      5-min Rain = 0
KCL1 211453Z 30009KT 07/M02 A2995 RMK A01 T00681019  RH  054%=      5-min Rain = 0
KCL1 211454Z 30010KT 07/M02 A2995 RMK A01 T00681019  RH  054%=      5-min Rain = 0
KCL1 211455Z 29010KT 07/M02 A2995 RMK A01 T00681020  RH  054%=      5-min Rain = 0
KCL1 211456Z 29009KT 07/M02 A2995 RMK A01 T00681020  RH  054%=      5-min Rain = 0
KCL1 211457Z 29008KT 07/M02 A2995 RMK A01 T00681019  RH  054%=      5-min Rain = 0
KCL1 211458Z 29009KT 07/M02 A2995 RMK A01 T00681019  RH  054%=      5-min Rain = 0
KCL1 211459Z 29009KT 07/M02 A2995 RMK A01 T00681020  RH  054%=      5-min Rain = 0
KCL1 211500Z 30008G13KT 07/M02 A2995 RMK A01 T00681019  RH  054%=      5-min Rain = 0
KCL1 211501Z 30009KT 07/M02 A2995 RMK A01 T00691019  RH  053%=      5-min Rain = 0
KCL1 211502Z 29007KT 07/M02 A2995 RMK A01 T00691019  RH  053%=      5-min Rain = 0
KCL1 211503Z 30009KT 07/M02 A2995 RMK A01 T00691019  RH  054%=      5-min Rain = 0
KCL1 211504Z 30010KT 07/M02 A2995 RMK A01 T00691019  RH  053%=      5-min Rain = 0
KCL1 211505Z 29010KT 07/M02 A2995 RMK A01 T00701019  RH  053%=      5-min Rain = 0
KCL1 211506Z 29011KT 07/M02 A2995 RMK A01 T00701019  RH  053%=      5-min Rain = 0
KCL1 211507Z 30009KT 07/M02 A2995 RMK A01 T00701019  RH  053%=      5-min Rain = 0
KCL1 211508Z 29009KT 07/M02 A2995 RMK A01 T00711019  RH  053%=      5-min Rain = 0
KCL1 211509Z 30011KT 07/M02 A2995 RMK A01 T00711019  RH  053%=      5-min Rain = 0
KCL1 211510Z 29010KT 07/M02 A2995 RMK A01 T00721019  RH  053%=      5-min Rain = 0
KCL1 211511Z 31009KT 07/M02 A2995 RMK A01 T00721018  RH  052%=      5-min Rain = 0
KCL1 211512Z 30008KT 07/M02 A2995 RMK A01 T00731018  RH  052%=      5-min Rain = 0
KCL1 211513Z 30010KT 07/M02 A2995 RMK A01 T00731018  RH  052%=      5-min Rain = 0
KCL1 211514Z 30011KT 07/M02 A2995 RMK A01 T00741018  RH  052%=      5-min Rain = 0
KCL1 211515Z 30009KT 07/M02 A2995 RMK A01 T00741018  RH  052%=      5-min Rain = 0
KCL1 211516Z 30012KT 07/M02 A2995 RMK A01 T00741018  RH  052%=      5-min Rain = 0
KCL1 211517Z 30010KT 08/M02 A2995 RMK A01 T00751018  RH  052%=      5-min Rain = 0
KCL1 211518Z 30012KT 08/M02 A2995 RMK A01 T00751018  RH  051%=      5-min Rain = 0
KCL1 211519Z 30010KT 08/M02 A2995 RMK A01 T00761018  RH  051%=      5-min Rain = 0
KCL1 211520Z 30009KT 08/M02 A2995 RMK A01 T00761018  RH  051%=      5-min Rain = 0
KCL1 211521Z 30009KT 08/M02 A2995 RMK A01 T00761018  RH  051%=      5-min Rain = 0
KCL1 211522Z 30010KT 08/M02 A2995 RMK A01 T00771018  RH  051%=      5-min Rain = 0
KCL1 211523Z 30010KT 08/M02 A2995 RMK A01 T00771018  RH  051%=      5-min Rain = 0
KCL1 211524Z 30011KT 08/M02 A2995 RMK A01 T00771018  RH  051%=      5-min Rain = 0
KCL1 211525Z 31010KT 08/M02 A2995 RMK A01 T00771018  RH  051%=      5-min Rain = 0
KCL1 211526Z 30010KT 08/M02 A2995 RMK A01 T00771018  RH  051%=      5-min Rain = 0
KCL1 211527Z 30009KT 08/M02 A2995 RMK A01 T00781018  RH  051%=      5-min Rain = 0
KCL1 211528Z 30009KT 08/M02 A2995 RMK A01 T00781018  RH  051%=      5-min Rain = 0
KCL1 211529Z 30011KT 08/M02 A2995 RMK A01 T00791018  RH  051%=      5-min Rain = 0
KCL1 211530Z 30009KT 08/M02 A2995 RMK A01 T00791018  RH  050%=      5-min Rain = 0
KCL1 211531Z 30011KT 08/M02 A2995 RMK A01 T00791017  RH  050%=      5-min Rain = 0
KCL1 211532Z 30010KT 08/M02 A2996 RMK A01 T00791018  RH  050%=      5-min Rain = 0
KCL1 211533Z 30011KT 08/M02 A2996 RMK A01 T00801018  RH  050%=      5-min Rain = 0
KCL1 211534Z 30009KT 08/M02 A2996 RMK A01 T00801018  RH  050%=      5-min Rain = 0
KCL1 211535Z 30008KT 08/M02 A2996 RMK A01 T00801018  RH  050%=      5-min Rain = 0
KCL1 211536Z 30008KT 08/M02 A2996 RMK A01 T00801017  RH  050%=      5-min Rain = 0
KCL1 211537Z 30010KT 08/M02 A2996 RMK A01 T00801017  RH  050%=      5-min Rain = 0
KCL1 211538Z 30009KT 08/M02 A2996 RMK A01 T00811018  RH  050%=      5-min Rain = 0
KCL1 211539Z 30009KT 08/M02 A2996 RMK A01 T00811017  RH  050%=      5-min Rain = 0
KCL1 211540Z 29009KT 08/M02 A2996 RMK A01 T00811017  RH  050%=      5-min Rain = 0
KCL1 211541Z 30008KT 08/M02 A2996 RMK A01 T00821017  RH  050%=      5-min Rain = 0
KCL1 211542Z 30010KT 08/M02 A2996 RMK A01 T00821017  RH  050%=      5-min Rain = 0
KCL1 211543Z 30008KT 08/M02 A2995 RMK A01 T00831017  RH  049%=      5-min Rain = 0
KCL1 211544Z 30009KT 08/M02 A2996 RMK A01 T00831017  RH  049%=      5-min Rain = 0
KCL1 211545Z 30010KT 08/M02 A2996 RMK A01 T00831017  RH  049%=      5-min Rain = 0
KCL1 211546Z 30009KT 08/M02 A2995 RMK A01 T00831017  RH  049%=      5-min Rain = 0
KCL1 211547Z 30009KT 08/M02 A2995 RMK A01 T00841016  RH  049%=      5-min Rain = 0
KCL1 211548Z 30009KT 08/M02 A2995 RMK A01 T00841017  RH  049%=      5-min Rain = 0
KCL1 211549Z 31009KT 09/M02 A2995 RMK A01 T00851017  RH  049%=      5-min Rain = 0
KCL1 211550Z 30009KT 09/M02 A2995 RMK A01 T00851017  RH  049%=      5-min Rain = 0
KCL1 211551Z 30008KT 09/M02 A2995 RMK A01 T00861016  RH  049%=      5-min Rain = 0
KCL1 211552Z 31010KT 09/M02 A2995 RMK A01 T00861016  RH  049%=      5-min Rain = 0
KCL1 211553Z 31009KT 09/M02 A2995 RMK A01 T00861017  RH  048%=      5-min Rain = 0
KCL1 211554Z 31009KT 09/M02 A2995 RMK A01 T00871017  RH  048%=      5-min Rain = 0
KCL1 211555Z 31010KT 09/M02 A2995 RMK A01 T00871017  RH  048%=      5-min Rain = 0
KCL1 211556Z 31010KT 09/M02 A2995 RMK A01 T00881017  RH  048%=      5-min Rain = 0
KCL1 211557Z 31010KT 09/M02 A2995 RMK A01 T00881017  RH  048%=      5-min Rain = 0
KCL1 211558Z 31009KT 09/M02 A2995 RMK A01 T00881017  RH  047%=      5-min Rain = 0
KCL1 211559Z 31011KT 09/M02 A2995 RMK A01 T00891017  RH  048%=      5-min Rain = 0
KCL1 211600Z 31009KT 09/M02 A2995 RMK A01 T00891017  RH  047%=      5-min Rain = 0
KCL1 211601Z 31008KT 09/M02 A2995 RMK A01 T00891016  RH  047%=      5-min Rain = 0
KCL1 211602Z 31009KT 09/M02 A2995 RMK A01 T00901016  RH  047%=      5-min Rain = 0
KCL1 211603Z 31010KT 09/M02 A2995 RMK A01 T00901016  RH  047%=      5-min Rain = 0
KCL1 211604Z 31009KT 09/M02 A2996 RMK A01 T00901017  RH  047%=      5-min Rain = 0
KCL1 211605Z 30008KT 09/M02 A2996 RMK A01 T00911016  RH  047%=      5-min Rain = 0
KCL1 211606Z 30008KT 09/M02 A2996 RMK A01 T00921015  RH  047%=      5-min Rain = 0
KCL1 211607Z 30010KT 09/M02 A2996 RMK A01 T00921016  RH  047%=      5-min Rain = 0
KCL1 211608Z 30011KT 09/M02 A2996 RMK A01 T00921017  RH  046%=      5-min Rain = 0
KCL1 211609Z 30010KT 09/M02 A2996 RMK A01 T00931017  RH  046%=      5-min Rain = 0
KCL1 211610Z 30010KT 09/M02 A2996 RMK A01 T00931016  RH  046%=      5-min Rain = 0
KCL1 211611Z 30008KT 09/M02 A2996 RMK A01 T00941016  RH  046%=      5-min Rain = 0
KCL1 211612Z 30012KT 09/M02 A2996 RMK A01 T00941016  RH  046%=      5-min Rain = 0
KCL1 211613Z 31008KT 10/M02 A2996 RMK A01 T00951016  RH  046%=      5-min Rain = 0
KCL1 211614Z 31007G12KT 10/M02 A2996 RMK A01 T00951015  RH  046%=      5-min Rain = 0
KCL1 211615Z 31009KT 10/M02 A2996 RMK A01 T00961015  RH  046%=      5-min Rain = 0
KCL1 211616Z 30010KT 10/M02 A2996 RMK A01 T00961016  RH  045%=      5-min Rain = 0
KCL1 211617Z 30010KT 10/M02 A2996 RMK A01 T00971016  RH  045%=      5-min Rain = 0
KCL1 211618Z 29009KT 10/M02 A2996 RMK A01 T00971017  RH  045%=      5-min Rain = 0
KCL1 211619Z 29008KT 10/M02 A2997 RMK A01 T00971016  RH  045%=      5-min Rain = 0
KCL1 211620Z 29009KT 10/M02 A2997 RMK A01 T00981016  RH  045%=      5-min Rain = 0
KCL1 211621Z 29009KT 10/M02 A2997 RMK A01 T00981016  RH  045%=      5-min Rain = 0
KCL1 211622Z 29010G15KT 10/M02 A2997 RMK A01 T00991017  RH  044%=      5-min Rain = 0
KCL1 211623Z 29010KT 10/M02 A2997 RMK A01 T00991017  RH  044%=      5-min Rain = 0
KCL1 211624Z 29010KT 10/M02 A2997 RMK A01 T00991017  RH  044%=      5-min Rain = 0
KCL1 211625Z 30009KT 10/M02 A2997 RMK A01 T00991018  RH  044%=      5-min Rain = 0
KCL1 211626Z 29009KT 10/M02 A2997 RMK A01 T01001016  RH  044%=      5-min Rain = 0
KCL1 211627Z 30009KT 10/M02 A2997 RMK A01 T01011016  RH  044%=      5-min Rain = 0
KCL1 211628Z 30008KT 10/M02 A2997 RMK A01 T01011017  RH  044%=      5-min Rain = 0
KCL1 211629Z 29007G12KT 10/M02 A2997 RMK A01 T01021017  RH  044%=      5-min Rain = 0
KCL1 211630Z 29012KT 10/M02 A2997 RMK A01 T01021017  RH  043%=      5-min Rain = 0
KCL1 211631Z 30009G14KT 10/M02 A2997 RMK A01 T01021018  RH  043%=      5-min Rain = 0
KCL1 211632Z 30009KT 10/M02 A2997 RMK A01 T01021017  RH  043%=      5-min Rain = 0
KCL1 211633Z 28008KT 10/M02 A2997 RMK A01 T01031018  RH  043%=      5-min Rain = 0
KCL1 211634Z 29011KT 10/M02 A2997 RMK A01 T01021018  RH  043%=      5-min Rain = 0
KCL1 211635Z 29010KT 10/M02 A2997 RMK A01 T01031019  RH  043%=      5-min Rain = 0
KCL1 211636Z 28011KT 10/M02 A2997 RMK A01 T01031019  RH  043%=      5-min Rain = 0
KCL1 211637Z 29009KT 10/M02 A2997 RMK A01 T01031019  RH  042%=      5-min Rain = 0
KCL1 211638Z 29011KT 10/M02 A2997 RMK A01 T01031019  RH  042%=      5-min Rain = 0
KCL1 211639Z 29009G14KT 10/M02 A2997 RMK A01 T01031019  RH  042%=      5-min Rain = 0
KCL1 211640Z 29008KT 10/M02 A2997 RMK A01 T01031019  RH  042%=      5-min Rain = 0
KCL1 211641Z 27009KT 10/M02 A2997 RMK A01 T01031019  RH  042%=      5-min Rain = 0
KCL1 211642Z 29009KT 10/M02 A2997 RMK A01 T01041018  RH  042%=      5-min Rain = 0
KCL1 211643Z 29010KT 10/M02 A2997 RMK A01 T01041018  RH  042%=      5-min Rain = 0
KCL1 211644Z 29009KT 10/M02 A2997 RMK A01 T01041018  RH  042%=      5-min Rain = 0
KCL1 211645Z 28008KT 10/M02 A2997 RMK A01 T01041019  RH  042%=      5-min Rain = 0
KCL1 211646Z 28008KT 10/M02 A2997 RMK A01 T01041019  RH  042%=      5-min Rain = 0
KCL1 211647Z 29008KT 11/M02 A2997 RMK A01 T01051019  RH  042%=      5-min Rain = 0
KCL1 211648Z 29012KT 11/M02 A2997 RMK A01 T01051019  RH  042%=      5-min Rain = 0
KCL1 211649Z 29010KT 11/M02 A2997 RMK A01 T01061019  RH  042%=      5-min Rain = 0
KCL1 211650Z 29008KT 11/M02 A2997 RMK A01 T01061019  RH  042%=      5-min Rain = 0
KCL1 211651Z 29008KT 11/M02 A2997 RMK A01 T01061019  RH  042%=      5-min Rain = 0
KCL1 211652Z 30008KT 11/M02 A2997 RMK A01 T01071018  RH  042%=      5-min Rain = 0
KCL1 211653Z 30010KT 11/M02 A2997 RMK A01 T01071018  RH  042%=      5-min Rain = 0
KCL1 211654Z 29009KT 11/M02 A2997 RMK A01 T01071018  RH  042%=      5-min Rain = 0
KCL1 211655Z 29011KT 11/M02 A2997 RMK A01 T01071018  RH  042%=      5-min Rain = 0
KCL1 211656Z 29008KT 11/M02 A2997 RMK A01 T01081018  RH  041%=      5-min Rain = 0
KCL1 211657Z 29010KT 11/M02 A2997 RMK A01 T01081018  RH  041%=      5-min Rain = 0
KCL1 211658Z 30008KT 11/M02 A2997 RMK A01 T01091018  RH  041%=      5-min Rain = 0
KCL1 211659Z 29009G15KT 11/M02 A2997 RMK A01 T01091017  RH  041%=      5-min Rain = 0
KCL1 211700Z 30010G15KT 11/M02 A2997 RMK A01 T01101018  RH  041%=      5-min Rain = 0
KCL1 211701Z 29008KT 11/M02 A2997 RMK A01 T01101018  RH  041%=      5-min Rain = 0
KCL1 211702Z 29011KT 11/M02 A2997 RMK A01 T01101019  RH  041%=      5-min Rain = 0
KCL1 211703Z 28009KT 11/M02 A2997 RMK A01 T01111019  RH  040%=      5-min Rain = 0
KCL1 211704Z 29009G14KT 11/M02 A2997 RMK A01 T01111019  RH  040%=      5-min Rain = 0
KCL1 211705Z 30010KT 11/M02 A2997 RMK A01 T01111020  RH  040%=      5-min Rain = 0
KCL1 211706Z 28010KT 11/M02 A2997 RMK A01 T01111020  RH  040%=      5-min Rain = 0
KCL1 211707Z 29009KT 11/M02 A2997 RMK A01 T01121019  RH  040%=      5-min Rain = 0
KCL1 211708Z 29011KT 11/M02 A2997 RMK A01 T01121019  RH  040%=      5-min Rain = 0
KCL1 211709Z 30009KT 11/M02 A2997 RMK A01 T01131019  RH  040%=      5-min Rain = 0
KCL1 211710Z 29010G16KT 11/M02 A2997 RMK A01 T01131019  RH  040%=      5-min Rain = 0
KCL1 211711Z 29011KT 11/M02 A2997 RMK A01 T01131021  RH  039%=      5-min Rain = 0
KCL1 211712Z 30010KT 11/M02 A2997 RMK A01 T01131020  RH  039%=      5-min Rain = 0
KCL1 211713Z 30014KT 11/M02 A2997 RMK A01 T01131021  RH  039%=      5-min Rain = 0
KCL1 211714Z 30012KT 11/M02 A2997 RMK A01 T01141021  RH  039%=      5-min Rain = 0
KCL1 211715Z 30009KT 11/M02 A2997 RMK A01 T01141021  RH  039%=      5-min Rain = 0
KCL1 211716Z 30008KT 11/M02 A2997 RMK A01 T01141020  RH  039%=      5-min Rain = 0
KCL1 211717Z 30008KT 11/M02 A2997 RMK A01 T01141020  RH  039%=      5-min Rain = 0
KCL1 211718Z 30009KT 12/M02 A2997 RMK A01 T01151020  RH  039%=      5-min Rain = 0
KCL1 211719Z 29008KT 12/M02 A2997 RMK A01 T01151018  RH  039%=      5-min Rain = 0
KCL1 211720Z 29008KT 12/M02 A2997 RMK A01 T01151018  RH  040%=      5-min Rain = 0
KCL1 211721Z 31007KT 12/M02 A2997 RMK A01 T01151017  RH  040%=      5-min Rain = 0
KCL1 211722Z 30007KT 12/M02 A2997 RMK A01 T01151017  RH  040%=      5-min Rain = 0
KCL1 211723Z 30009KT 12/M02 A2997 RMK A01 T01161018  RH  039%=      5-min Rain = 0
KCL1 211724Z 30010KT 12/M02 A2997 RMK A01 T01171018  RH  039%=      5-min Rain = 0
KCL1 211725Z 30010KT 12/M02 A2997 RMK A01 T01181019  RH  039%=      5-min Rain = 0
KCL1 211726Z 31012KT 12/M02 A2997 RMK A01 T01181020  RH  038%=      5-min Rain = 0
KCL1 211727Z 30013KT 12/M02 A2997 RMK A01 T01191021  RH  038%=      5-min Rain = 0
KCL1 211728Z 31012KT 12/M02 A2997 RMK A01 T01191021  RH  038%=      5-min Rain = 0
KCL1 211729Z 30008KT 12/M02 A2997 RMK A01 T01191021  RH  038%=      5-min Rain = 0
KCL1 211730Z 30010KT 12/M02 A2997 RMK A01 T01201019  RH  038%=      5-min Rain = 0
KCL1 211731Z 30010KT 12/M02 A2997 RMK A01 T01211021  RH  037%=      5-min Rain = 0
KCL1 211732Z 30011KT 12/M02 A2996 RMK A01 T01211021  RH  037%=      5-min Rain = 0
KCL1 211733Z 30011KT 12/M02 A2996 RMK A01 T01211022  RH  037%=      5-min Rain = 0
KCL1 211734Z 30011KT 12/M02 A2996 RMK A01 T01211022  RH  037%=      5-min Rain = 0
KCL1 211735Z 30010KT 12/M02 A2996 RMK A01 T01211022  RH  037%=      5-min Rain = 0
KCL1 211736Z 30009KT 12/M02 A2996 RMK A01 T01221021  RH  037%=      5-min Rain = 0
KCL1 211737Z 31011KT 12/M02 A2996 RMK A01 T01221021  RH  037%=      5-min Rain = 0
KCL1 211738Z 30010KT 12/M02 A2996 RMK A01 T01221021  RH  037%=      5-min Rain = 0
KCL1 211739Z 30013KT 12/M02 A2996 RMK A01 T01231021  RH  037%=      5-min Rain = 0
KCL1 211740Z 30011KT 12/M02 A2996 RMK A01 T01231021  RH  037%=      5-min Rain = 0
KCL1 211741Z 30011KT 12/M02 A2996 RMK A01 T01231021  RH  037%=      5-min Rain = 0
KCL1 211742Z 30011KT 12/M02 A2996 RMK A01 T01241021  RH  037%=      5-min Rain = 0
KCL1 211743Z 29011KT 12/M02 A2996 RMK A01 T01241021  RH  036%=      5-min Rain = 0
KCL1 211744Z 30011KT 12/M02 A2996 RMK A01 T01241021  RH  036%=      5-min Rain = 0
KCL1 211745Z 30008KT 12/M02 A2996 RMK A01 T01241021  RH  036%=      5-min Rain = 0
KCL1 211746Z 30008KT 13/M02 A2995 RMK A01 T01251020  RH  037%=      5-min Rain = 0
KCL1 211747Z 31011KT 13/M02 A2995 RMK A01 T01261020  RH  036%=      5-min Rain = 0
KCL1 211748Z 30010KT 13/M02 A2995 RMK A01 T01261021  RH  036%=      5-min Rain = 0
KCL1 211749Z 31012KT 13/M02 A2995 RMK A01 T01261020  RH  036%=      5-min Rain = 0
KCL1 211750Z 31011KT 13/M02 A2995 RMK A01 T01271018  RH  036%=      5-min Rain = 0
KCL1 211751Z 31014KT 13/M02 A2995 RMK A01 T01271020  RH  036%=      5-min Rain = 0
KCL1 211752Z 32013KT 13/M02 A2995 RMK A01 T01271020  RH  036%=      5-min Rain = 0
KCL1 211753Z 32014KT 13/M02 A2995 RMK A01 T01271020  RH  036%=      5-min Rain = 0
KCL1 211754Z 32012KT 13/M02 A2995 RMK A01 T01271021  RH  036%=      5-min Rain = 0
KCL1 211755Z 32014KT 13/M02 A2994 RMK A01 T01271021  RH  036%=      5-min Rain = 0
KCL1 211756Z 32014KT 13/M02 A2994 RMK A01 T01271021  RH  036%=      5-min Rain = 0
KCL1 211757Z 32011G17KT 13/M02 A2994 RMK A01 T01281021  RH  035%=      5-min Rain = 0
KCL1 211758Z 31013KT 13/M02 A2994 RMK A01 T01291021  RH  035%=      5-min Rain = 0
KCL1 211759Z 31011KT 13/M02 A2994 RMK A01 T01291022  RH  035%=      5-min Rain = 0
KCL1 211800Z 31014KT 13/M02 A2994 RMK A01 T01301021  RH  035%=      5-min Rain = 0
KCL1 211801Z 31013KT 13/M02 A2995 RMK A01 T01301022  RH  035%=      5-min Rain = 0
KCL1 211802Z 30011KT 13/M02 A2995 RMK A01 T01291022  RH  035%=      5-min Rain = 0
KCL1 211803Z 30010KT 13/M02 A2994 RMK A01 T01291022  RH  035%=      5-min Rain = 0
KCL1 211804Z 30011KT 13/M02 A2994 RMK A01 T01291022  RH  035%=      5-min Rain = 0
KCL1 211805Z 31008KT 13/M02 A2994 RMK A01 T01291021  RH  035%=      5-min Rain = 0
KCL1 211806Z 32011KT 13/M02 A2994 RMK A01 T01301020  RH  035%=      5-min Rain = 0
KCL1 211807Z 31011KT 13/M02 A2994 RMK A01 T01311021  RH  035%=      5-min Rain = 0
KCL1 211808Z 31013KT 13/M02 A2994 RMK A01 T01301021  RH  035%=      5-min Rain = 0
KCL1 211809Z 31013KT 13/M02 A2994 RMK A01 T01301023  RH  035%=      5-min Rain = 0
KCL1 211810Z 31011KT 13/M02 A2994 RMK A01 T01291024  RH  035%=      5-min Rain = 0
KCL1 211811Z 31011KT 13/M02 A2994 RMK A01 T01301023  RH  035%=      5-min Rain = 0
KCL1 211812Z 32011KT 13/M02 A2994 RMK A01 T01301023  RH  034%=      5-min Rain = 0
KCL1 211813Z 31012KT 13/M02 A2994 RMK A01 T01311023  RH  034%=      5-min Rain = 0
KCL1 211814Z 31010KT 13/M02 A2994 RMK A01 T01301023  RH  034%=      5-min Rain = 0
KCL1 211815Z 30011KT 13/M02 A2994 RMK A01 T01311023  RH  034%=      5-min Rain = 0
KCL1 211816Z 30010KT 13/M02 A2994 RMK A01 T01321022  RH  034%=      5-min Rain = 0
KCL1 211817Z 30009KT 13/M02 A2994 RMK A01 T01321022  RH  034%=      5-min Rain = 0
KCL1 211818Z 30008KT 13/M02 A2994 RMK A01 T01331022  RH  034%=      5-min Rain = 0
KCL1 211819Z 31008KT 13/M02 A2994 RMK A01 T01341021  RH  034%=      5-min Rain = 0
KCL1 211820Z 32006KT 13/M02 A2994 RMK A01 T01341020  RH  034%=      5-min Rain = 0
KCL1 211821Z 32009KT 14/M02 A2994 RMK A01 T01351020  RH  034%=      5-min Rain = 0
KCL1 211822Z 31009KT 14/M02 A2994 RMK A01 T01351020  RH  034%=      5-min Rain = 0
KCL1 211823Z 32009KT 14/M02 A2994 RMK A01 T01351022  RH  034%=      5-min Rain = 0
KCL1 211824Z 31009KT 14/M02 A2993 RMK A01 T01351022  RH  034%=      5-min Rain = 0
KCL1 211825Z 32010KT 14/M02 A2993 RMK A01 T01361022  RH  033%=      5-min Rain = 0
KCL1 211826Z 32007KT 14/M02 A2993 RMK A01 T01361022  RH  033%=      5-min Rain = 0
KCL1 211827Z 30006KT 14/M02 A2993 RMK A01 T01361021  RH  034%=      5-min Rain = 0
KCL1 211828Z 31008KT 14/M02 A2993 RMK A01 T01381020  RH  033%=      5-min Rain = 0
KCL1 211829Z 30006KT 14/M02 A2993 RMK A01 T01391021  RH  033%=      5-min Rain = 0
KCL1 211830Z 33007KT 14/M02 A2993 RMK A01 T01411019  RH  033%=      5-min Rain = 0
KCL1 211831Z 33007KT 14/M02 A2993 RMK A01 T01431020  RH  032%=      5-min Rain = 0
KCL1 211832Z 31006KT 14/M02 A2992 RMK A01 T01431021  RH  032%=      5-min Rain = 0
KCL1 211833Z 32007KT 14/M02 A2992 RMK A01 T01441020  RH  032%=      5-min Rain = 0
KCL1 211834Z 31006KT 15/M02 A2992 RMK A01 T01451020  RH  032%=      5-min Rain = 0
KCL1 211835Z 32006KT 15/M02 A2992 RMK A01 T01471020  RH  032%=      5-min Rain = 0
KCL1 211836Z 31006KT 15/M02 A2992 RMK A01 T01491019  RH  032%=      5-min Rain = 0
KCL1 211837Z 30006KT 15/M02 A2992 RMK A01 T01501018  RH  031%=      5-min Rain = 0
KCL1 211838Z 27005KT 15/M02 A2992 RMK A01 T01521017  RH  031%=      5-min Rain = 0
KCL1 211839Z 27007KT 15/M02 A2992 RMK A01 T01531019  RH  031%=      5-min Rain = 0
KCL1 211840Z 30006KT 15/M02 A2991 RMK A01 T01521021  RH  030%=      5-min Rain = 0
KCL1 211841Z 30005KT 15/M02 A2991 RMK A01 T01521020  RH  031%=      5-min Rain = 0
KCL1 211842Z 31007KT 16/M02 A2991 RMK A01 T01551018  RH  030%=      5-min Rain = 0
KCL1 211843Z 31006KT 16/M02 A2991 RMK A01 T01561020  RH  030%=      5-min Rain = 0
KCL1 211844Z 31007KT 16/M02 A2991 RMK A01 T01561021  RH  030%=      5-min Rain = 0
KCL1 211845Z 32007KT 16/M02 A2991 RMK A01 T01561022  RH  029%=      5-min Rain = 0
KCL1 211846Z 31008KT 16/M02 A299 RMK A01 T01571022  RH  029%=      5-min Rain = 0
KCL1 211847Z 31006KT 16/M02 A299 RMK A01 T01591024  RH  028%=      5-min Rain = 0
KCL1 211848Z 30006KT 16/M03 A299 RMK A01 T01591025  RH  028%=      5-min Rain = 0
KCL1 211849Z 30006KT 16/M02 A299 RMK A01 T01601023  RH  029%=      5-min Rain = 0
KCL1 211850Z 30007KT 16/M02 A299 RMK A01 T01611024  RH  028%=      5-min Rain = 0
KCL1 211851Z 30005KT 16/M03 A299 RMK A01 T01601027  RH  028%=      5-min Rain = 0
KCL1 211852Z 31005KT 16/M03 A299 RMK A01 T01581026  RH  028%=      5-min Rain = 0
KCL1 211853Z 32003KT 16/M03 A299 RMK A01 T01581026  RH  028%=      5-min Rain = 0
KCL1 211854Z 31006KT 16/M03 A2989 RMK A01 T01571026  RH  028%=      5-min Rain = 0
KCL1 211855Z 32005KT 16/M03 A2989 RMK A01 T01571026  RH  028%=      5-min Rain = 0
KCL1 211856Z 32004KT 16/M03 A2989 RMK A01 T01571028  RH  028%=      5-min Rain = 0
KCL1 211857Z 32004KT 16/M03 A2989 RMK A01 T01581026  RH  028%=      5-min Rain = 0
KCL1 211858Z 29002KT 16/M03 A2989 RMK A01 T01591031  RH  027%=      5-min Rain = 0
KCL1 211859Z 34005KT 16/M03 A2989 RMK A01 T01601030  RH  027%=      5-min Rain = 0
KCL1 211900Z 33006KT 16/M03 A2989 RMK A01 T01611031  RH  027%=      5-min Rain = 0
KCL1 211901Z 34005KT 16/M03 A2989 RMK A01 T01611031  RH  027%=      5-min Rain = 0
KCL1 211902Z 34005KT 16/M03 A2989 RMK A01 T01611028  RH  027%=      5-min Rain = 0
KCL1 211903Z 31005KT 16/M03 A2989 RMK A01 T01611028  RH  027%=      5-min Rain = 0
KCL1 211904Z 30005KT 16/M03 A2989 RMK A01 T01611028  RH  027%=      5-min Rain = 0
KCL1 211905Z 31004KT 16/M03 A2989 RMK A01 T01621032  RH  026%=      5-min Rain = 0
KCL1 211906Z 33003KT 16/M04 A2989 RMK A01 T01601036  RH  026%=      5-min Rain = 0
KCL1 211907Z 25002KT 16/M04 A2989 RMK A01 T01591036  RH  026%=      5-min Rain = 0
KCL1 211908Z 27002KT 16/M04 A2989 RMK A01 T01611037  RH  026%=      5-min Rain = 0
KCL1 211909Z 30004KT 16/M04 A2989 RMK A01 T01611036  RH  026%=      5-min Rain = 0
KCL1 211910Z 28004KT 16/M03 A2989 RMK A01 T01611034  RH  026%=      5-min Rain = 0
KCL1 211911Z 31005KT 16/M03 A2989 RMK A01 T01611033  RH  026%=      5-min Rain = 0
KCL1 211912Z 30004KT 16/M03 A2988 RMK A01 T01631031  RH  026%=      5-min Rain = 0
KCL1 211913Z 29004KT 16/M03 A2988 RMK A01 T01641031  RH  026%=      5-min Rain = 0
KCL1 211914Z 30004KT 17/M03 A2988 RMK A01 T01651031  RH  026%=      5-min Rain = 0
KCL1 211915Z 30003KT 17/M03 A2988 RMK A01 T01651032  RH  026%=      5-min Rain = 0
KCL1 211916Z 30003KT 17/M03 A2988 RMK A01 T01651030  RH  026%=      5-min Rain = 0
KCL1 211917Z 28005KT 17/M03 A2988 RMK A01 T01661033  RH  025%=      5-min Rain = 0
KCL1 211918Z 27004KT 17/M03 A2988 RMK A01 T01661033  RH  025%=      5-min Rain = 0
KCL1 211919Z 26004KT 17/M03 A2988 RMK A01 T01671032  RH  025%=      5-min Rain = 0
KCL1 211920Z 25005KT 17/M03 A2988 RMK A01 T01691032  RH  025%=      5-min Rain = 0
KCL1 211921Z 24005KT 17/M03 A2988 RMK A01 T01711031  RH  025%=      5-min Rain = 0
KCL1 211922Z 24004KT 17/M03 A2988 RMK A01 T01701033  RH  025%=      5-min Rain = 0
KCL1 211923Z 27005KT 17/M03 A2988 RMK A01 T01681033  RH  025%=      5-min Rain = 0
KCL1 211924Z 27004KT 17/M03 A2988 RMK A01 T01681031  RH  025%=      5-min Rain = 0
KCL1 211925Z 27005KT 17/M03 A2988 RMK A01 T01681032  RH  025%=      5-min Rain = 0
KCL1 211926Z 26006KT 17/M03 A2988 RMK A01 T01691032  RH  025%=      5-min Rain = 0
KCL1 211927Z 26004KT 17/M03 A2988 RMK A01 T01701032  RH  025%=      5-min Rain = 0
KCL1 211928Z 26006KT 17/M03 A2988 RMK A01 T01711031  RH  025%=      5-min Rain = 0
KCL1 211929Z 27005KT 17/M03 A2988 RMK A01 T01731031  RH  025%=      5-min Rain = 0
KCL1 211930Z 26007KT 17/M03 A2988 RMK A01 T01741032  RH  024%=      5-min Rain = 0
KCL1 211931Z 26006KT 17/M03 A2988 RMK A01 T01741034  RH  024%=      5-min Rain = 0
KCL1 211932Z 23006KT 17/M03 A2988 RMK A01 T01741033  RH  024%=      5-min Rain = 0
KCL1 211933Z 23007KT 17/M03 A2988 RMK A01 T01741033  RH  024%=      5-min Rain = 0
KCL1 211934Z 26007KT 17/M03 A2988 RMK A01 T01731033  RH  024%=      5-min Rain = 0
KCL1 211935Z 24004KT 17/M03 A2988 RMK A01 T01731034  RH  024%=      5-min Rain = 0
KCL1 211936Z 28003KT 17/M03 A2988 RMK A01 T01741032  RH  024%=      5-min Rain = 0
KCL1 211937Z 34004KT 18/M03 A2988 RMK A01 T01751031  RH  024%=      5-min Rain = 0
KCL1 211938Z 34006KT 18/M03 A2988 RMK A01 T01751034  RH  024%=      5-min Rain = 0
KCL1 211939Z 32003KT 17/M03 A2988 RMK A01 T01741034  RH  024%=      5-min Rain = 0
KCL1 211940Z 31003KT 17/M03 A2987 RMK A01 T01741032  RH  024%=      5-min Rain = 0
KCL1 211941Z 00002KT 18/M03 A2987 RMK A01 T01761033  RH  024%=      5-min Rain = 0
KCL1 211942Z 33002KT 18/M03 A2987 RMK A01 T01761033  RH  024%=      5-min Rain = 0
KCL1 211943Z 32005KT 18/M03 A2987 RMK A01 T01761033  RH  024%=      5-min Rain = 0
KCL1 211944Z 32008KT 18/M03 A2987 RMK A01 T01781034  RH  023%=      5-min Rain = 0
KCL1 211945Z 31007KT 18/M04 A2987 RMK A01 T01781035  RH  023%=      5-min Rain = 0
KCL1 211946Z 31003KT 18/M04 A2987 RMK A01 T01781035  RH  023%=      5-min Rain = 0
KCL1 211947Z 34004KT 18/M04 A2987 RMK A01 T01791036  RH  023%=      5-min Rain = 0
KCL1 211948Z 35003KT 18/M04 A2987 RMK A01 T01771039  RH  023%=      5-min Rain = 0
KCL1 211949Z 33003KT 18/M04 A2987 RMK A01 T01761038  RH  023%=      5-min Rain = 0
KCL1 211950Z 31007KT 18/M04 A2987 RMK A01 T01781035  RH  023%=      5-min Rain = 0
KCL1 211951Z 31008KT 18/M04 A2987 RMK A01 T01791037  RH  023%=      5-min Rain = 0
KCL1 211952Z 31003KT 18/M04 A2987 RMK A01 T01791039  RH  022%=      5-min Rain = 0
KCL1 211953Z 31002KT 18/M04 A2987 RMK A01 T01781039  RH  023%=      5-min Rain = 0
KCL1 211954Z 29002KT 18/M04 A2987 RMK A01 T01781040  RH  022%=      5-min Rain = 0
KCL1 211955Z 24001KT 18/M04 A2987 RMK A01 T01781040  RH  022%=      5-min Rain = 0
KCL1 211956Z 28001KT 18/M04 A2987 RMK A01 T01771038  RH  023%=      5-min Rain = 0
KCL1 211957Z 31001KT 18/M04 A2986 RMK A01 T01791038  RH  023%=      5-min Rain = 0
KCL1 211958Z 33004KT 18/M04 A2986 RMK A01 T01811037  RH  022%=      5-min Rain = 0
KCL1 211959Z 34003KT 18/M04 A2986 RMK A01 T01811038  RH  022%=      5-min Rain = 0
KCL1 212000Z 28006KT 18/M04 A2986 RMK A01 T01811037  RH  022%=      5-min Rain = 0
KCL1 212001Z 29006KT 18/M04 A2986 RMK A01 T01801038  RH  022%=      5-min Rain = 0
KCL1 212002Z 29005KT 18/M04 A2986 RMK A01 T01791038  RH  022%=      5-min Rain = 0
KCL1 212003Z 29004KT 18/M04 A2986 RMK A01 T01781039  RH  022%=      5-min Rain = 0
KCL1 212004Z 27004KT 18/M04 A2986 RMK A01 T01781038  RH  023%=      5-min Rain = 0
KCL1 212005Z 27003KT 18/M04 A2986 RMK A01 T01781038  RH  023%=      5-min Rain = 0
KCL1 212006Z 27002KT 18/M04 A2986 RMK A01 T01801035  RH  023%=      5-min Rain = 0
KCL1 212007Z 26002KT 18/M04 A2986 RMK A01 T01821039  RH  022%=      5-min Rain = 0
KCL1 212008Z 23003KT 18/M04 A2986 RMK A01 T01821039  RH  022%=      5-min Rain = 0
KCL1 212009Z 21003KT 18/M04 A2986 RMK A01 T01831037  RH  022%=      5-min Rain = 0
KCL1 212010Z 21002KT 19/M04 A2986 RMK A01 T01851039  RH  022%=      5-min Rain = 0
KCL1 212011Z 27006KT 19/M04 A2986 RMK A01 T01851038  RH  022%=      5-min Rain = 0
KCL1 212012Z 28006KT 19/M04 A2986 RMK A01 T01851039  RH  021%=      5-min Rain = 0
KCL1 212013Z 26007KT 18/M04 A2986 RMK A01 T01841040  RH  022%=      5-min Rain = 0
KCL1 212014Z 26006KT 18/M04 A2986 RMK A01 T01831039  RH  022%=      5-min Rain = 0
KCL1 212015Z 26008KT 18/M04 A2986 RMK A01 T01841038  RH  022%=      5-min Rain = 0
KCL1 212016Z 26008KT 18/M04 A2986 RMK A01 T01841039  RH  022%=      5-min Rain = 0
KCL1 212017Z 25007KT 18/M04 A2986 RMK A01 T01841040  RH  022%=      5-min Rain = 0
KCL1 212018Z 25004KT 18/M04 A2986 RMK A01 T01831040  RH  022%=      5-min Rain = 0
KCL1 212019Z 25002KT 18/M04 A2986 RMK A01 T01831040  RH  022%=      5-min Rain = 0
KCL1 212020Z 21001KT 19/M04 A2986 RMK A01 T01851038  RH  022%=      5-min Rain = 0
KCL1 212021Z 17001KT 19/M04 A2986 RMK A01 T01871040  RH  021%=      5-min Rain = 0
KCL1 212022Z 24002KT 19/M04 A2986 RMK A01 T01881040  RH  021%=      5-min Rain = 0
KCL1 212023Z 26001KT 19/M04 A2986 RMK A01 T01871043  RH  021%=      5-min Rain = 0
KCL1 212024Z 30002KT 19/M04 A2986 RMK A01 T01861041  RH  021%=      5-min Rain = 0
KCL1 212025Z 29002KT 19/M04 A2986 RMK A01 T01871039  RH  021%=      5-min Rain = 0
KCL1 212026Z 30005KT 19/M04 A2986 RMK A01 T01881039  RH  021%=      5-min Rain = 0
KCL1 212027Z 30004KT 19/M04 A2986 RMK A01 T01881039  RH  021%=      5-min Rain = 0
KCL1 212028Z 27006KT 19/M04 A2986 RMK A01 T01881039  RH  021%=      5-min Rain = 0
KCL1 212029Z 25006KT 19/M04 A2986 RMK A01 T01881039  RH  021%=      5-min Rain = 0
KCL1 212030Z 28003KT 19/M04 A2986 RMK A01 T01871041  RH  021%=      5-min Rain = 0
KCL1 212031Z 29007KT 19/M04 A2986 RMK A01 T01871041  RH  021%=      5-min Rain = 0
KCL1 212032Z 29006KT 19/M04 A2986 RMK A01 T01861042  RH  021%=      5-min Rain = 0
KCL1 212033Z 26007KT 18/M04 A2986 RMK A01 T01841042  RH  021%=      5-min Rain = 0
KCL1 212034Z 25009KT 18/M04 A2986 RMK A01 T01821042  RH  021%=      5-min Rain = 0
KCL1 212035Z 25006KT 18/M04 A2986 RMK A01 T01801043  RH  022%=      5-min Rain = 0
KCL1 212036Z 26008KT 18/M04 A2985 RMK A01 T01791041  RH  022%=      5-min Rain = 0
KCL1 212037Z 27006KT 18/M04 A2985 RMK A01 T01791041  RH  022%=      5-min Rain = 0
KCL1 212038Z 27006KT 18/M04 A2985 RMK A01 T01801041  RH  022%=      5-min Rain = 0
KCL1 212039Z 27007KT 18/M04 A2985 RMK A01 T01821040  RH  022%=      5-min Rain = 0
KCL1 212040Z 26005KT 18/M04 A2985 RMK A01 T01831041  RH  022%=      5-min Rain = 0
KCL1 212041Z 26005KT 18/M04 A2985 RMK A01 T01831041  RH  022%=      5-min Rain = 0
KCL1 212042Z 27005KT 18/M04 A2985 RMK A01 T01831040  RH  022%=      5-min Rain = 0
KCL1 212043Z 27007KT 18/M04 A2985 RMK A01 T01841040  RH  022%=      5-min Rain = 0
KCL1 212044Z 30007KT 18/M04 A2985 RMK A01 T01821042  RH  022%=      5-min Rain = 0
KCL1 212045Z 31006KT 18/M04 A2985 RMK A01 T01791044  RH  022%=      5-min Rain = 0
KCL1 212046Z 26005KT 18/M04 A2985 RMK A01 T01771042  RH  022%=      5-min Rain = 0
KCL1 212047Z 25006KT 18/M04 A2985 RMK A01 T01771041  RH  022%=      5-min Rain = 0
KCL1 212048Z 26005KT 18/M04 A2985 RMK A01 T01771042  RH  022%=      5-min Rain = 0
KCL1 212049Z 25004KT 18/M04 A2985 RMK A01 T01771043  RH  022%=      5-min Rain = 0
KCL1 212050Z 26003KT 18/M04 A2985 RMK A01 T01771043  RH  022%=      5-min Rain = 0
KCL1 212051Z 23003KT 18/M04 A2985 RMK A01 T01781042  RH  022%=      5-min Rain = 0
KCL1 212052Z 21004KT 18/M04 A2985 RMK A01 T01791044  RH  022%=      5-min Rain = 0
KCL1 212053Z 22003KT 18/M04 A2985 RMK A01 T01801043  RH  022%=      5-min Rain = 0
KCL1 212054Z 22003KT 18/M04 A2985 RMK A01 T01821042  RH  021%=      5-min Rain = 0
KCL1 212055Z 25004KT 18/M04 A2985 RMK A01 T01831042  RH  021%=      5-min Rain = 0
KCL1 212056Z 23005KT 19/M04 A2985 RMK A01 T01861040  RH  021%=      5-min Rain = 0
KCL1 212057Z 25006KT 19/M04 A2985 RMK A01 T01871039  RH  021%=      5-min Rain = 0
KCL1 212058Z 24005KT 19/M04 A2985 RMK A01 T01871038  RH  022%=      5-min Rain = 0
KCL1 212059Z 22004KT 19/M04 A2985 RMK A01 T01861037  RH  022%=      5-min Rain = 0
KCL1 212100Z 24002KT 19/M04 A2985 RMK A01 T01861035  RH  022%=      5-min Rain = 0
KCL1 212101Z 23006KT 19/M03 A2985 RMK A01 T01881034  RH  022%=      5-min Rain = 0
KCL1 212102Z 21006KT 19/M03 A2985 RMK A01 T01891030  RH  023%=      5-min Rain = 0
KCL1 212103Z 19007KT 19/M03 A2985 RMK A01 T01901029  RH  023%=      5-min Rain = 0
KCL1 212104Z 18007KT 19/M03 A2985 RMK A01 T01891028  RH  023%=      5-min Rain = 0
KCL1 212105Z 18006KT 19/M03 A2985 RMK A01 T01891029  RH  023%=      5-min Rain = 0
KCL1 212106Z 16006KT 19/M03 A2985 RMK A01 T01881030  RH  023%=      5-min Rain = 0
KCL1 212107Z 15005KT 19/M03 A2985 RMK A01 T01881030  RH  023%=      5-min Rain = 0
KCL1 212108Z 14005KT 19/M03 A2985 RMK A01 T01871031  RH  023%=      5-min Rain = 0
KCL1 212109Z 14002KT 19/M03 A2985 RMK A01 T01851033  RH  023%=      5-min Rain = 0
KCL1 212110Z 10002KT 18/M03 A2985 RMK A01 T01841033  RH  023%=      5-min Rain = 0
KCL1 212111Z 07002KT 18/M03 A2985 RMK A01 T01821034  RH  023%=      5-min Rain = 0
KCL1 212112Z 05000KT 18/M03 A2985 RMK A01 T01811033  RH  023%=      5-min Rain = 0
KCL1 212113Z 04000KT 18/M03 A2985 RMK A01 T01821033  RH  023%=      5-min Rain = 0
KCL1 212114Z 05000KT 18/M03 A2985 RMK A01 T01831033  RH  023%=      5-min Rain = 0
KCL1 212115Z 05001KT 18/M03 A2985 RMK A01 T01841032  RH  023%=      5-min Rain = 0
KCL1 212116Z 34001KT 18/M03 A2985 RMK A01 T01831033  RH  023%=      5-min Rain = 0
KCL1 212117Z 29001KT 18/M03 A2985 RMK A01 T01821034  RH  023%=      5-min Rain = 0
KCL1 212118Z 30003KT 18/M04 A2985 RMK A01 T01811036  RH  023%=      5-min Rain = 0
KCL1 212119Z 25005KT 18/M04 A2985 RMK A01 T01821037  RH  022%=      5-min Rain = 0
KCL1 212120Z 26006KT 18/M04 A2985 RMK A01 T01841040  RH  022%=      5-min Rain = 0
KCL1 212121Z 25007KT 18/M04 A2985 RMK A01 T01841039  RH  022%=      5-min Rain = 0
KCL1 212122Z 25006KT 19/M04 A2985 RMK A01 T01851039  RH  022%=      5-min Rain = 0
KCL1 212123Z 25007KT 19/M04 A2985 RMK A01 T01861038  RH  022%=      5-min Rain = 0
KCL1 212124Z 24007KT 18/M04 A2985 RMK A01 T01841040  RH  021%=      5-min Rain = 0
KCL1 212125Z 22005KT 18/M04 A2985 RMK A01 T01831039  RH  022%=      5-min Rain = 0
KCL1 212126Z 23003KT 18/M04 A2985 RMK A01 T01831040  RH  022%=      5-min Rain = 0
KCL1 212127Z 25003KT 18/M04 A2985 RMK A01 T01831041  RH  022%=      5-min Rain = 0
KCL1 212128Z 23003KT 18/M04 A2985 RMK A01 T01831040  RH  022%=      5-min Rain = 0
KCL1 212129Z 24005KT 18/M04 A2985 RMK A01 T01841039  RH  022%=      5-min Rain = 0
KCL1 212130Z 24005KT 19/M04 A2985 RMK A01 T01851040  RH  021%=      5-min Rain = 0
KCL1 212131Z 24005KT 19/M04 A2985 RMK A01 T01851039  RH  022%=      5-min Rain = 0
KCL1 212132Z 24008KT 19/M04 A2985 RMK A01 T01861038  RH  022%=      5-min Rain = 0
KCL1 212133Z 23007KT 19/M04 A2985 RMK A01 T01871039  RH  021%=      5-min Rain = 0
KCL1 212134Z 23006KT 19/M04 A2985 RMK A01 T01861039  RH  021%=      5-min Rain = 0
KCL1 212135Z 24006KT 18/M04 A2985 RMK A01 T01841039  RH  022%=      5-min Rain = 0
KCL1 212136Z 26005KT 18/M04 A2985 RMK A01 T01841039  RH  022%=      5-min Rain = 0
KCL1 212137Z 28007KT 18/M04 A2985 RMK A01 T01841039  RH  022%=      5-min Rain = 0
KCL1 212138Z 25004KT 18/M04 A2985 RMK A01 T01831040  RH  022%=      5-min Rain = 0
KCL1 212139Z 31002KT 18/M04 A2985 RMK A01 T01821040  RH  022%=      5-min Rain = 0
KCL1 212140Z 33004KT 18/M04 A2985 RMK A01 T01821039  RH  022%=      5-min Rain = 0
KCL1 212141Z 31004KT 18/M04 A2985 RMK A01 T01821040  RH  022%=      5-min Rain = 0
KCL1 212142Z 30004KT 18/M04 A2985 RMK A01 T01811041  RH  022%=      5-min Rain = 0
KCL1 212143Z 25003KT 18/M04 A2985 RMK A01 T01811039  RH  022%=      5-min Rain = 0
KCL1 212144Z 27005KT 18/M04 A2985 RMK A01 T01831038  RH  022%=      5-min Rain = 0
KCL1 212145Z 27004KT 18/M04 A2985 RMK A01 T01831039  RH  022%=      5-min Rain = 0
KCL1 212146Z 26003KT 18/M04 A2985 RMK A01 T01841039  RH  022%=      5-min Rain = 0
KCL1 212147Z 22002KT 18/M04 A2985 RMK A01 T01841039  RH  022%=      5-min Rain = 0
KCL1 212148Z 20002KT 18/M04 A2985 RMK A01 T01841038  RH  022%=      5-min Rain = 0
KCL1 212149Z 25001KT 19/M04 A2985 RMK A01 T01851037  RH  022%=      5-min Rain = 0
KCL1 212150Z 27003KT 19/M04 A2985 RMK A01 T01871037  RH  022%=      5-min Rain = 0
KCL1 212151Z 24003KT 19/M04 A2985 RMK A01 T01881037  RH  022%=      5-min Rain = 0
KCL1 212152Z 21006KT 19/M04 A2985 RMK A01 T01901035  RH  022%=      5-min Rain = 0
KCL1 212153Z 22005KT 19/M04 A2985 RMK A01 T01901036  RH  021%=      5-min Rain = 0
KCL1 212154Z 20004KT 19/M04 A2985 RMK A01 T01891035  RH  022%=      5-min Rain = 0
KCL1 212155Z 19004KT 19/M04 A2985 RMK A01 T01901039  RH  021%=      5-min Rain = 0
KCL1 212156Z 20006KT 19/M04 A2985 RMK A01 T01911040  RH  021%=      5-min Rain = 0
KCL1 212157Z 23007KT 19/M04 A2985 RMK A01 T01911039  RH  021%=      5-min Rain = 0
KCL1 212158Z 23004KT 19/M04 A2985 RMK A01 T01911038  RH  021%=      5-min Rain = 0
KCL1 212159Z 21007KT 19/M04 A2985 RMK A01 T01901042  RH  020%=      5-min Rain = 0
KCL1 212200Z 22006KT 19/M05 A2984 RMK A01 T01881045  RH  020%=      5-min Rain = 0
KCL1 212201Z 24004KT 19/M05 A2984 RMK A01 T01851046  RH  020%=      5-min Rain = 0
KCL1 212202Z 27003KT 18/M05 A2984 RMK A01 T01841046  RH  021%=      5-min Rain = 0
KCL1 212203Z 25002KT 18/M05 A2984 RMK A01 T01841047  RH  020%=      5-min Rain = 0
KCL1 212204Z 26002KT 18/M05 A2984 RMK A01 T01831047  RH  020%=      5-min Rain = 0
KCL1 212205Z 27002KT 18/M05 A2984 RMK A01 T01831047  RH  020%=      5-min Rain = 0
KCL1 212206Z 26005KT 18/M05 A2984 RMK A01 T01841046  RH  021%=      5-min Rain = 0
KCL1 212207Z 26005KT 18/M05 A2984 RMK A01 T01841047  RH  021%=      5-min Rain = 0
KCL1 212208Z 23004KT 18/M05 A2984 RMK A01 T01841047  RH  020%=      5-min Rain = 0
KCL1 212209Z 25006KT 18/M05 A2984 RMK A01 T01831046  RH  021%=      5-min Rain = 0
KCL1 212210Z 26006KT 18/M05 A2984 RMK A01 T01831045  RH  021%=      5-min Rain = 0
KCL1 212211Z 28005KT 18/M05 A2984 RMK A01 T01831045  RH  021%=      5-min Rain = 0
KCL1 212212Z 31005KT 18/M05 A2984 RMK A01 T01831045  RH  021%=      5-min Rain = 0
KCL1 212213Z 30004KT 18/M05 A2984 RMK A01 T01821048  RH  021%=      5-min Rain = 0
KCL1 212214Z 31003KT 18/M05 A2984 RMK A01 T01811046  RH  021%=      5-min Rain = 0
KCL1 212215Z 31003KT 18/M05 A2984 RMK A01 T01811047  RH  021%=      5-min Rain = 0
KCL1 212216Z 32005KT 18/M05 A2983 RMK A01 T01811046  RH  021%=      5-min Rain = 0
KCL1 212217Z 33004KT 18/M05 A2983 RMK A01 T01811046  RH  021%=      5-min Rain = 0
KCL1 212218Z 32004KT 18/M05 A2983 RMK A01 T01811047  RH  021%=      5-min Rain = 0
KCL1 212219Z 33004KT 18/M05 A2983 RMK A01 T01811046  RH  021%=      5-min Rain = 0
KCL1 212220Z 32005KT 18/M04 A2984 RMK A01 T01821044  RH  021%=      5-min Rain = 0
KCL1 212221Z 30004KT 18/M04 A2984 RMK A01 T01841043  RH  021%=      5-min Rain = 0
KCL1 212222Z 30003KT 19/M05 A2984 RMK A01 T01851047  RH  020%=      5-min Rain = 0
KCL1 212223Z 31004KT 19/M05 A2984 RMK A01 T01851046  RH  020%=      5-min Rain = 0
KCL1 212224Z 31004KT 18/M05 A2984 RMK A01 T01841048  RH  020%=      5-min Rain = 0
KCL1 212225Z 31004KT 18/M05 A2984 RMK A01 T01831047  RH  020%=      5-min Rain = 0
KCL1 212226Z 30004KT 18/M05 A2984 RMK A01 T01831046  RH  021%=      5-min Rain = 0
KCL1 212227Z 27005KT 18/M05 A2984 RMK A01 T01831045  RH  021%=      5-min Rain = 0
KCL1 212228Z 28005KT 18/M05 A2984 RMK A01 T01821047  RH  021%=      5-min Rain = 0
KCL1 212229Z 30004KT 18/M05 A2984 RMK A01 T01821046  RH  021%=      5-min Rain = 0
KCL1 212230Z 31006KT 18/M05 A2985 RMK A01 T01811047  RH  021%=      5-min Rain = 0
KCL1 212231Z 30006KT 18/M05 A2985 RMK A01 T01801046  RH  021%=      5-min Rain = 0
KCL1 212232Z 30005KT 18/M05 A2985 RMK A01 T01801047  RH  021%=      5-min Rain = 0
KCL1 212233Z 31004KT 18/M05 A2985 RMK A01 T01791047  RH  021%=      5-min Rain = 0
KCL1 212234Z 30004KT 18/M05 A2985 RMK A01 T01781046  RH  021%=      5-min Rain = 0
KCL1 212235Z 31004KT 18/M05 A2985 RMK A01 T01791045  RH  021%=      5-min Rain = 0
KCL1 212236Z 32004KT 18/M05 A2985 RMK A01 T01781046  RH  021%=      5-min Rain = 0
KCL1 212237Z 31004KT 18/M05 A2985 RMK A01 T01781046  RH  021%=      5-min Rain = 0
KCL1 212238Z 32003KT 18/M05 A2985 RMK A01 T01771046  RH  021%=      5-min Rain = 0
KCL1 212239Z 30003KT 18/M05 A2985 RMK A01 T01771045  RH  022%=      5-min Rain = 0
KCL1 212240Z 31004KT 18/M05 A2985 RMK A01 T01771046  RH  022%=      5-min Rain = 0
KCL1 212241Z 30004KT 18/M04 A2985 RMK A01 T01771044  RH  022%=      5-min Rain = 0
KCL1 212242Z 30003KT 18/M04 A2985 RMK A01 T01761044  RH  022%=      5-min Rain = 0
KCL1 212243Z 31004KT 18/M05 A2985 RMK A01 T01761046  RH  022%=      5-min Rain = 0
KCL1 212244Z 31008KT 18/M04 A2985 RMK A01 T01761044  RH  022%=      5-min Rain = 0
KCL1 212245Z 32008KT 18/M04 A2985 RMK A01 T01751043  RH  022%=      5-min Rain = 0
KCL1 212246Z 32008KT 17/M04 A2985 RMK A01 T01741042  RH  022%=      5-min Rain = 0
KCL1 212247Z 34007KT 17/M04 A2985 RMK A01 T01731041  RH  023%=      5-min Rain = 0
KCL1 212248Z 34006KT 17/M04 A2985 RMK A01 T01721040  RH  023%=      5-min Rain = 0
KCL1 212249Z 34006KT 17/M04 A2986 RMK A01 T01721040  RH  023%=      5-min Rain = 0
KCL1 212250Z 34006KT 17/M04 A2986 RMK A01 T01711040  RH  023%=      5-min Rain = 0
KCL1 212251Z 34006KT 17/M04 A2986 RMK A01 T01711039  RH  023%=      5-min Rain = 0
KCL1 212252Z 34005KT 17/M04 A2986 RMK A01 T01711038  RH  024%=      5-min Rain = 0
KCL1 212253Z 34004KT 17/M04 A2986 RMK A01 T01701036  RH  024%=      5-min Rain = 0
KCL1 212254Z 34004KT 17/M04 A2986 RMK A01 T01701035  RH  024%=      5-min Rain = 0
KCL1 212255Z 34006KT 17/M04 A2986 RMK A01 T01701035  RH  024%=      5-min Rain = 0
KCL1 212256Z 33007KT 17/M04 A2986 RMK A01 T01701035  RH  024%=      5-min Rain = 0
KCL1 212257Z 33007KT 17/M04 A2986 RMK A01 T01691036  RH  024%=      5-min Rain = 0
KCL1 212258Z 33007KT 17/M04 A2986 RMK A01 T01691037  RH  024%=      5-min Rain = 0
KCL1 212259Z 33007KT 17/M04 A2986 RMK A01 T01691039  RH  024%=      5-min Rain = 0
KCL1 212300Z 33006KT 17/M04 A2986 RMK A01 T01691039  RH  024%=      5-min Rain = 0
KCL1 212301Z 33006KT 17/M04 A2987 RMK A01 T01691037  RH  024%=      5-min Rain = 0
KCL1 212302Z 33006KT 17/M04 A2987 RMK A01 T01701036  RH  024%=      5-min Rain = 0
KCL1 212303Z 34006KT 17/M04 A2987 RMK A01 T01711036  RH  024%=      5-min Rain = 0
KCL1 212304Z 34007KT 17/M04 A2986 RMK A01 T01721035  RH  024%=      5-min Rain = 0
KCL1 212305Z 34006KT 17/M04 A2986 RMK A01 T01721038  RH  023%=      5-min Rain = 0
KCL1 212306Z 34006KT 17/M04 A2986 RMK A01 T01721038  RH  024%=      5-min Rain = 0
KCL1 212307Z 35006KT 17/M04 A2986 RMK A01 T01711039  RH  024%=      5-min Rain = 0
KCL1 212308Z 35006KT 17/M04 A2986 RMK A01 T01711038  RH  024%=      5-min Rain = 0
KCL1 212309Z 35006KT 17/M04 A2986 RMK A01 T01711039  RH  024%=      5-min Rain = 0
KCL1 212310Z 36006KT 17/M04 A2986 RMK A01 T01711039  RH  024%=      5-min Rain = 0
KCL1 212311Z 35007KT 17/M04 A2986 RMK A01 T01701039  RH  024%=      5-min Rain = 0
KCL1 212312Z 00006KT 17/M04 A2986 RMK A01 T01701042  RH  023%=      5-min Rain = 0
KCL1 212313Z 01005KT 17/M04 A2986 RMK A01 T01691041  RH  023%=      5-min Rain = 0
KCL1 212314Z 01007KT 17/M04 A2986 RMK A01 T01681041  RH  024%=      5-min Rain = 0
KCL1 212315Z 01007KT 17/M04 A2986 RMK A01 T01671043  RH  023%=      5-min Rain = 0
KCL1 212316Z 02007KT 17/M04 A2985 RMK A01 T01661042  RH  024%=      5-min Rain = 0
KCL1 212317Z 02006KT 17/M04 A2985 RMK A01 T01651043  RH  024%=      5-min Rain = 0
KCL1 212318Z 02007KT 16/M04 A2985 RMK A01 T01641043  RH  024%=      5-min Rain = 0
KCL1 212319Z 02008KT 16/M04 A2985 RMK A01 T01621044  RH  024%=      5-min Rain = 0
KCL1 212320Z 03008KT 16/M04 A2985 RMK A01 T01611044  RH  024%=      5-min Rain = 0
KCL1 212321Z 02008KT 16/M05 A2985 RMK A01 T01601045  RH  024%=      5-min Rain = 0
KCL1 212322Z 02007KT 16/M05 A2985 RMK A01 T01601045  RH  024%=      5-min Rain = 0
KCL1 212323Z 02007KT 16/M05 A2985 RMK A01 T01591046  RH  024%=      5-min Rain = 0
KCL1 212324Z 02007KT 16/M05 A2985 RMK A01 T01581045  RH  024%=      5-min Rain = 0
KCL1 212325Z 02007KT 16/M05 A2985 RMK A01 T01571045  RH  024%=      5-min Rain = 0
KCL1 212326Z 02007KT 16/M05 A2985 RMK A01 T01571045  RH  025%=      5-min Rain = 0
KCL1 212327Z 02007KT 16/M05 A2985 RMK A01 T01561046  RH  025%=      5-min Rain = 0
KCL1 212328Z 02007KT 16/M05 A2985 RMK A01 T01561045  RH  025%=      5-min Rain = 0
KCL1 212329Z 02008KT 16/M05 A2985 RMK A01 T01551045  RH  025%=      5-min Rain = 0
KCL1 212330Z 02007KT 15/M05 A2985 RMK A01 T01541046  RH  025%=      5-min Rain = 0
KCL1 212331Z 02008KT 15/M05 A2985 RMK A01 T01541045  RH  025%=      5-min Rain = 0
KCL1 212332Z 02008KT 15/M05 A2985 RMK A01 T01531045  RH  025%=      5-min Rain = 0
KCL1 212333Z 02008KT 15/M05 A2985 RMK A01 T01521045  RH  025%=      5-min Rain = 0
KCL1 212334Z 02008KT 15/M05 A2985 RMK A01 T01511046  RH  025%=      5-min Rain = 0
KCL1 212335Z 03008KT 15/M05 A2985 RMK A01 T01511046  RH  025%=      5-min Rain = 0
KCL1 212336Z 03008KT 15/M05 A2985 RMK A01 T01501045  RH  026%=      5-min Rain = 0
KCL1 212337Z 03008KT 15/M05 A2985 RMK A01 T01491045  RH  026%=      5-min Rain = 0
KCL1 212338Z 03008KT 15/M05 A2985 RMK A01 T01481045  RH  026%=      5-min Rain = 0
KCL1 212339Z 04007KT 15/M04 A2985 RMK A01 T01471044  RH  026%=      5-min Rain = 0
KCL1 212340Z 05007KT 15/M04 A2985 RMK A01 T01451044  RH  027%=      5-min Rain = 0
KCL1 212341Z 05007KT 14/M04 A2985 RMK A01 T01431043  RH  027%=      5-min Rain = 0
KCL1 212342Z 05007KT 14/M04 A2985 RMK A01 T01411042  RH  028%=      5-min Rain = 0
KCL1 212343Z 06007KT 14/M04 A2985 RMK A01 T01391041  RH  028%=      5-min Rain = 0
KCL1 212344Z 06007KT 14/M04 A2985 RMK A01 T01381040  RH  029%=      5-min Rain = 0
KCL1 212345Z 06007KT 14/M04 A2985 RMK A01 T01371040  RH  029%=      5-min Rain = 0
KCL1 212346Z 06007KT 14/M04 A2986 RMK A01 T01381039  RH  029%=      5-min Rain = 0
KCL1 212347Z 05007KT 14/M04 A2986 RMK A01 T01381038  RH  029%=      5-min Rain = 0
KCL1 212348Z 05007KT 14/M04 A2986 RMK A01 T01381038  RH  029%=      5-min Rain = 0
KCL1 212349Z 05008KT 14/M04 A2986 RMK A01 T01381038  RH  029%=      5-min Rain = 0
KCL1 212350Z 05008KT 14/M04 A2986 RMK A01 T01381037  RH  029%=      5-min Rain = 0
KCL1 212351Z 05008KT 14/M04 A2986 RMK A01 T01381037  RH  029%=      5-min Rain = 0
KCL1 212352Z 05008KT 14/M04 A2986 RMK A01 T01381037  RH  030%=      5-min Rain = 0
KCL1 212353Z 04008KT 14/M04 A2986 RMK A01 T01371037  RH  030%=      5-min Rain = 0
KCL1 212354Z 04008KT 14/M04 A2986 RMK A01 T01371037  RH  030%=      5-min Rain = 0
KCL1 212355Z 04008KT 14/M04 A2986 RMK A01 T01371037  RH  030%=      5-min Rain = 0
KCL1 212356Z 04007KT 14/M04 A2986 RMK A01 T01381037  RH  030%=      5-min Rain = 0
KCL1 212357Z 04007KT 14/M04 A2986 RMK A01 T01381037  RH  030%=      5-min Rain = 0
KCL1 212358Z 04007KT 14/M04 A2986 RMK A01 T01371037  RH  030%=      5-min Rain = 0
KCL1 212359Z 04007KT 14/M04 A2987 RMK A01 T01371037  RH  030%=      5-min Rain = 0
KCL1 220000Z 04007KT 14/M04 A2987 RMK A01 T01371037  RH  030%=      5-min Rain = 0
KCL1 220001Z 04007KT 14/M04 A2987 RMK A01 T01361037  RH  030%=      5-min Rain = 0
KCL1 220002Z 04007KT 14/M04 A2987 RMK A01 T01351037  RH  030%=      5-min Rain = 0
KCL1 220003Z 05007KT 13/M04 A2987 RMK A01 T01341037  RH  030%=      5-min Rain = 0
KCL1 220004Z 05007KT 13/M04 A2987 RMK A01 T01341037  RH  030%=      5-min Rain = 0
KCL1 220005Z 05008KT 13/M04 A2987 RMK A01 T01321037  RH  031%=      5-min Rain = 0
KCL1 220006Z 04007KT 13/M04 A2987 RMK A01 T01311037  RH  031%=      5-min Rain = 0
KCL1 220007Z 04007KT 13/M04 A2987 RMK A01 T01311036  RH  031%=      5-min Rain = 0
KCL1 220008Z 04007KT 13/M04 A2987 RMK A01 T01301036  RH  031%=      5-min Rain = 0
KCL1 220009Z 03008KT 13/M04 A2987 RMK A01 T01301036  RH  031%=      5-min Rain = 0
KCL1 220010Z 02008KT 13/M04 A2987 RMK A01 T01301036  RH  031%=      5-min Rain = 0
KCL1 220011Z 02008KT 13/M04 A2987 RMK A01 T01291036  RH  032%=      5-min Rain = 0
KCL1 220012Z 02008KT 13/M04 A2987 RMK A01 T01281036  RH  032%=      5-min Rain = 0
KCL1 220013Z 03008KT 13/M04 A2987 RMK A01 T01271036  RH  032%=      5-min Rain = 0
KCL1 220014Z 03009KT 13/M04 A2987 RMK A01 T01271035  RH  032%=      5-min Rain = 0
KCL1 220015Z 03009KT 13/M04 A2987 RMK A01 T01261035  RH  032%=      5-min Rain = 0
KCL1 220016Z 03009KT 13/M03 A2987 RMK A01 T01251034  RH  033%=      5-min Rain = 0
KCL1 220017Z 04009KT 12/M03 A2987 RMK A01 T01241033  RH  033%=      5-min Rain = 0
KCL1 220018Z 04009KT 12/M03 A2987 RMK A01 T01231032  RH  034%=      5-min Rain = 0
KCL1 220019Z 04010KT 12/M03 A2987 RMK A01 T01221031  RH  034%=      5-min Rain = 0
KCL1 220020Z 03009KT 12/M03 A2987 RMK A01 T01221029  RH  035%=      5-min Rain = 0
KCL1 220021Z 03009KT 12/M03 A2987 RMK A01 T01221028  RH  035%=      5-min Rain = 0
KCL1 220022Z 03009KT 12/M03 A2987 RMK A01 T01211026  RH  036%=      5-min Rain = 0
KCL1 220023Z 03009KT 12/M02 A2988 RMK A01 T01221024  RH  036%=      5-min Rain = 0
KCL1 220024Z 03009KT 12/M02 A2988 RMK A01 T01221023  RH  036%=      5-min Rain = 0
KCL1 220025Z 03009KT 12/M02 A2988 RMK A01 T01211022  RH  037%=      5-min Rain = 0
KCL1 220026Z 03009KT 12/M02 A2988 RMK A01 T01211021  RH  037%=      5-min Rain = 0
KCL1 220027Z 03009KT 12/M02 A2988 RMK A01 T01201020  RH  038%=      5-min Rain = 0
KCL1 220028Z 03009KT 12/M02 A2988 RMK A01 T01191020  RH  038%=      5-min Rain = 0
KCL1 220029Z 03009KT 12/M02 A2988 RMK A01 T01191019  RH  038%=      5-min Rain = 0
KCL1 220030Z 02009KT 12/M02 A2988 RMK A01 T01191018  RH  039%=      5-min Rain = 0
KCL1 220031Z 02009KT 12/M02 A2988 RMK A01 T01181017  RH  039%=      5-min Rain = 0
KCL1 220032Z 02009KT 12/M02 A2988 RMK A01 T01181017  RH  039%=      5-min Rain = 0
KCL1 220033Z 02009KT 12/M02 A2988 RMK A01 T01171017  RH  039%=      5-min Rain = 0
KCL1 220034Z 02009KT 12/M02 A2989 RMK A01 T01161017  RH  040%=      5-min Rain = 0
KCL1 220035Z 02009KT 12/M02 A2989 RMK A01 T01161016  RH  040%=      5-min Rain = 0
KCL1 220036Z 02010KT 12/M02 A2989 RMK A01 T01151016  RH  040%=      5-min Rain = 0
KCL1 220037Z 02010KT 11/M02 A2989 RMK A01 T01141017  RH  040%=      5-min Rain = 0
KCL1 220038Z 02010KT 11/M02 A2989 RMK A01 T01131016  RH  041%=      5-min Rain = 0
KCL1 220039Z 02009KT 11/M02 A2989 RMK A01 T01121016  RH  041%=      5-min Rain = 0
KCL1 220040Z 02010KT 11/M02 A2989 RMK A01 T01111016  RH  041%=      5-min Rain = 0
KCL1 220041Z 02010KT 11/M02 A2989 RMK A01 T01101016  RH  041%=      5-min Rain = 0
KCL1 220042Z 02010KT 11/M02 A2989 RMK A01 T01101015  RH  042%=      5-min Rain = 0
KCL1 220043Z 03010KT 11/M02 A2989 RMK A01 T01091015  RH  042%=      5-min Rain = 0
KCL1 220044Z 03011KT 11/M02 A2989 RMK A01 T01081015  RH  042%=      5-min Rain = 0
KCL1 220045Z 03011KT 11/M01 A2989 RMK A01 T01081014  RH  042%=      5-min Rain = 0
KCL1 220046Z 03011KT 11/M01 A2989 RMK A01 T01071014  RH  043%=      5-min Rain = 0
KCL1 220047Z 03011KT 11/M01 A2988 RMK A01 T01071014  RH  043%=      5-min Rain = 0
KCL1 220048Z 03011KT 11/M01 A2988 RMK A01 T01061014  RH  043%=      5-min Rain = 0
KCL1 220049Z 03010KT 11/M01 A2988 RMK A01 T01061014  RH  043%=      5-min Rain = 0
KCL1 220050Z 03010KT 11/M01 A2988 RMK A01 T01061013  RH  043%=      5-min Rain = 0
KCL1 220051Z 04010KT 11/M01 A2989 RMK A01 T01051014  RH  044%=      5-min Rain = 0
KCL1 220052Z 04010KT 10/M01 A2989 RMK A01 T01041014  RH  044%=      5-min Rain = 0
KCL1 220053Z 04010KT 10/M01 A2989 RMK A01 T01031014  RH  044%=      5-min Rain = 0
KCL1 220054Z 05011KT 10/M01 A2989 RMK A01 T01031013  RH  044%=      5-min Rain = 0
KCL1 220055Z 05011KT 10/M01 A2989 RMK A01 T01021013  RH  044%=      5-min Rain = 0
KCL1 220056Z 06012KT 10/M01 A2989 RMK A01 T01021013  RH  044%=      5-min Rain = 0
KCL1 220057Z 06012KT 10/M01 A2989 RMK A01 T01031014  RH  044%=      5-min Rain = 0
KCL1 220058Z 07012KT 10/M01 A2989 RMK A01 T01041014  RH  044%=      5-min Rain = 0
KCL1 220059Z 07011KT 11/M01 A2989 RMK A01 T01061014  RH  043%=      5-min Rain = 0
KCL1 220100Z 07011KT 11/M01 A2989 RMK A01 T01071014  RH  043%=      5-min Rain = 0
KCL1 220101Z 07011KT 11/M02 A2989 RMK A01 T01061015  RH  043%=      5-min Rain = 0
KCL1 220102Z 08012KT 10/M02 A2989 RMK A01 T01041016  RH  043%=      5-min Rain = 0
KCL1 220103Z 08012KT 10/M02 A2989 RMK A01 T01021016  RH  043%=      5-min Rain = 0
KCL1 220104Z 08012KT 10/M02 A2989 RMK A01 T01011016  RH  044%=      5-min Rain = 0
KCL1 220105Z 08012KT 10/M02 A2989 RMK A01 T01001017  RH  044%=      5-min Rain = 0
KCL1 220106Z 08012KT 10/M02 A2989 RMK A01 T00991017  RH  044%=      5-min Rain = 0
KCL1 220107Z 08012KT 10/M02 A2989 RMK A01 T00981017  RH  045%=      5-min Rain = 0
KCL1 220108Z 08011KT 10/M02 A2989 RMK A01 T00981017  RH  045%=      5-min Rain = 0
KCL1 220109Z 08012KT 10/M02 A2989 RMK A01 T00981017  RH  045%=      5-min Rain = 0
KCL1 220110Z 08012KT 10/M02 A2989 RMK A01 T00971017  RH  045%=      5-min Rain = 0
KCL1 220111Z 08012KT 10/M02 A2989 RMK A01 T00961017  RH  045%=      5-min Rain = 0
KCL1 220112Z 08011KT 10/M02 A2989 RMK A01 T00971016  RH  045%=      5-min Rain = 0
KCL1 220113Z 08011KT 10/M02 A2989 RMK A01 T00971015  RH  045%=      5-min Rain = 0
KCL1 220114Z 09010KT 10/M01 A299 RMK A01 T00971014  RH  046%=      5-min Rain = 0
KCL1 220115Z 09010KT 10/M01 A299 RMK A01 T00981013  RH  046%=      5-min Rain = 0
KCL1 220116Z 10010KT 10/M01 A299 RMK A01 T00981013  RH  046%=      5-min Rain = 0
KCL1 220117Z 10009KT 10/M01 A299 RMK A01 T00981013  RH  046%=      5-min Rain = 0
KCL1 220118Z 10009KT 10/M01 A299 RMK A01 T00971013  RH  046%=      5-min Rain = 0
KCL1 220119Z 10008KT 10/M01 A299 RMK A01 T00961013  RH  046%=      5-min Rain = 0
KCL1 220120Z 10007KT 10/M01 A299 RMK A01 T00951014  RH  047%=      5-min Rain = 0
KCL1 220121Z 10007KT 09/M01 A299 RMK A01 T00941014  RH  047%=      5-min Rain = 0
KCL1 220122Z 11006KT 09/M01 A299 RMK A01 T00931014  RH  047%=      5-min Rain = 0
KCL1 220123Z 11006KT 09/M01 A299 RMK A01 T00921014  RH  048%=      5-min Rain = 0
KCL1 220124Z 12006KT 09/M01 A299 RMK A01 T00911013  RH  048%=      5-min Rain = 0
KCL1 220125Z 12007KT 09/M01 A299 RMK A01 T00901013  RH  048%=      5-min Rain = 0
KCL1 220126Z 12007KT 09/M01 A2991 RMK A01 T00901012  RH  049%=      5-min Rain = 0
KCL1 220127Z 12008KT 09/M01 A2991 RMK A01 T00901011  RH  049%=      5-min Rain = 0
KCL1 220128Z 11008KT 09/M01 A2991 RMK A01 T00891011  RH  049%=      5-min Rain = 0
KCL1 220129Z 11008KT 09/M01 A299 RMK A01 T00901011  RH  049%=      5-min Rain = 0
KCL1 220130Z 11009KT 09/M01 A299 RMK A01 T00901010  RH  049%=      5-min Rain = 0
KCL1 220131Z 11009KT 09/M01 A299 RMK A01 T00911009  RH  049%=      5-min Rain = 0
KCL1 220132Z 11009KT 09/M01 A299 RMK A01 T00921009  RH  049%=      5-min Rain = 0
KCL1 220133Z 11010KT 09/M01 A299 RMK A01 T00921009  RH  049%=      5-min Rain = 0
KCL1 220134Z 10009KT 09/M01 A299 RMK A01 T00931008  RH  049%=      5-min Rain = 0
KCL1 220135Z 11009KT 09/M01 A299 RMK A01 T00931008  RH  049%=      5-min Rain = 0
KCL1 220136Z 10009KT 09/M01 A2991 RMK A01 T00941008  RH  049%=      5-min Rain = 0
KCL1 220137Z 10009KT 09/M01 A2991 RMK A01 T00941008  RH  049%=      5-min Rain = 0
KCL1 220138Z 10009KT 09/M01 A2991 RMK A01 T00941008  RH  049%=      5-min Rain = 0
KCL1 220139Z 10009KT 09/M01 A2991 RMK A01 T00941008  RH  049%=      5-min Rain = 0
KCL1 220140Z 10009KT 09/M01 A2991 RMK A01 T00941008  RH  049%=      5-min Rain = 0
KCL1 220141Z 10008KT 10/M01 A2991 RMK A01 T00951007  RH  049%=      5-min Rain = 0
KCL1 220142Z 10008KT 10/M01 A2991 RMK A01 T00951008  RH  049%=      5-min Rain = 0
KCL1 220143Z 10008KT 10/M01 A299 RMK A01 T00951007  RH  049%=      5-min Rain = 0
KCL1 220144Z 10008KT 10/M01 A2991 RMK A01 T00951007  RH  049%=      5-min Rain = 0
KCL1 220145Z 10008KT 09/M01 A2991 RMK A01 T00941007  RH  049%=      5-min Rain = 0
KCL1 220146Z 10008KT 09/M01 A2991 RMK A01 T00941007  RH  049%=      5-min Rain = 0
KCL1 220147Z 10008KT 09/M01 A299 RMK A01 T00941007  RH  049%=      5-min Rain = 0
KCL1 220148Z 09008KT 09/M01 A299 RMK A01 T00931007  RH  049%=      5-min Rain = 0
KCL1 220149Z 10008KT 09/M01 A299 RMK A01 T00931007  RH  050%=      5-min Rain = 0
KCL1 220150Z 09007KT 09/M01 A299 RMK A01 T00931007  RH  050%=      5-min Rain = 0
KCL1 220151Z 09007KT 09/M01 A299 RMK A01 T00931007  RH  050%=      5-min Rain = 0
KCL1 220152Z 09007KT 09/M01 A299 RMK A01 T00931007  RH  050%=      5-min Rain = 0
KCL1 220153Z 08007KT 09/M01 A2991 RMK A01 T00921007  RH  050%=      5-min Rain = 0
KCL1 220154Z 08006KT 09/M01 A2991 RMK A01 T00921006  RH  050%=      5-min Rain = 0
KCL1 220155Z 07006KT 09/M01 A2991 RMK A01 T00921007  RH  050%=      5-min Rain = 0
KCL1 220156Z 07007KT 09/M01 A2991 RMK A01 T00921006  RH  050%=      5-min Rain = 0
KCL1 220157Z 08007KT 09/M01 A2991 RMK A01 T00911007  RH  050%=      5-min Rain = 0
KCL1 220158Z 08007KT 09/M01 A2991 RMK A01 T00911007  RH  050%=      5-min Rain = 0
KCL1 220159Z 08007KT 09/M01 A2991 RMK A01 T00911007  RH  050%=      5-min Rain = 0
KCL1 220200Z 08007KT 09/M01 A2991 RMK A01 T00911007  RH  050%=      5-min Rain = 0
KCL1 220201Z 08007KT 09/M01 A2991 RMK A01 T00911007  RH  050%=      5-min Rain = 0
KCL1 220202Z 08007KT 09/M01 A2991 RMK A01 T00911007  RH  050%=      5-min Rain = 0
KCL1 220203Z 08007KT 09/M01 A2991 RMK A01 T00911007  RH  050%=      5-min Rain = 0
KCL1 220204Z 08007KT 09/M01 A2991 RMK A01 T00901007  RH  051%=      5-min Rain = 0
KCL1 220205Z 08007KT 09/M01 A2991 RMK A01 T00891007  RH  051%=      5-min Rain = 0
KCL1 220206Z 08007KT 09/M01 A2991 RMK A01 T00891007  RH  051%=      5-min Rain = 0
KCL1 220207Z 07007KT 09/M01 A2991 RMK A01 T00881007  RH  051%=      5-min Rain = 0
KCL1 220208Z 06008KT 09/M01 A2991 RMK A01 T00881007  RH  051%=      5-min Rain = 0
KCL1 220209Z 06008KT 09/M01 A2991 RMK A01 T00871007  RH  052%=      5-min Rain = 0
KCL1 220210Z 06009KT 09/M01 A299 RMK A01 T00861008  RH  052%=      5-min Rain = 0
KCL1 220211Z 06008KT 09/M01 A299 RMK A01 T00851008  RH  052%=      5-min Rain = 0
KCL1 220212Z 06009KT 08/M01 A299 RMK A01 T00831008  RH  053%=      5-min Rain = 0
KCL1 220213Z 06009KT 08/M01 A299 RMK A01 T00821008  RH  053%=      5-min Rain = 0
KCL1 220214Z 06009KT 08/M01 A299 RMK A01 T00811008  RH  053%=      5-min Rain = 0
KCL1 220215Z 06008KT 08/M01 A2991 RMK A01 T00801008  RH  054%=      5-min Rain = 0
KCL1 220216Z 06008KT 08/M01 A2991 RMK A01 T00791008  RH  054%=      5-min Rain = 0
KCL1 220217Z 07009KT 08/M01 A299 RMK A01 T00781008  RH  054%=      5-min Rain = 0
KCL1 220218Z 06009KT 08/M01 A299 RMK A01 T00781008  RH  054%=      5-min Rain = 0
KCL1 220219Z 07009KT 08/M01 A299 RMK A01 T00771008  RH  055%=      5-min Rain = 0
KCL1 220220Z 07009KT 08/M01 A299 RMK A01 T00771008  RH  055%=      5-min Rain = 0
KCL1 220221Z 08009KT 08/M01 A299 RMK A01 T00781008  RH  055%=      5-min Rain = 0
KCL1 220222Z 08009KT 08/M01 A299 RMK A01 T00791008  RH  054%=      5-min Rain = 0
KCL1 220223Z 08009KT 08/M01 A299 RMK A01 T00791008  RH  054%=      5-min Rain = 0
KCL1 220224Z 08009KT 08/M01 A2991 RMK A01 T00791008  RH  054%=      5-min Rain = 0
KCL1 220225Z 08009KT 08/M01 A2991 RMK A01 T00791008  RH  054%=      5-min Rain = 0
KCL1 220226Z 08009KT 08/M01 A2991 RMK A01 T00781009  RH  054%=      5-min Rain = 0
KCL1 220227Z 08008KT 08/M01 A2991 RMK A01 T00761009  RH  055%=      5-min Rain = 0
KCL1 220228Z 08009KT 08/M01 A2991 RMK A01 T00751009  RH  055%=      5-min Rain = 0
KCL1 220229Z 08008KT 08/M01 A2991 RMK A01 T00751009  RH  055%=      5-min Rain = 0
KCL1 220230Z 08009KT 07/M01 A2991 RMK A01 T00741010  RH  055%=      5-min Rain = 0
KCL1 220231Z 08009KT 07/M01 A2991 RMK A01 T00741009  RH  056%=      5-min Rain = 0
KCL1 220232Z 08009KT 07/M01 A2991 RMK A01 T00731009  RH  056%=      5-min Rain = 0
KCL1 220233Z 08009KT 07/M01 A2991 RMK A01 T00731009  RH  056%=      5-min Rain = 0
KCL1 220234Z 09010KT 07/M01 A2991 RMK A01 T00731009  RH  056%=      5-min Rain = 0
KCL1 220235Z 09009KT 07/M01 A2991 RMK A01 T00731009  RH  056%=      5-min Rain = 0
KCL1 220236Z 09009KT 07/M01 A2991 RMK A01 T00721009  RH  056%=      5-min Rain = 0
KCL1 220237Z 09009KT 07/M01 A2991 RMK A01 T00721009  RH  056%=      5-min Rain = 0
KCL1 220238Z 09008KT 07/M01 A2991 RMK A01 T00721009  RH  056%=      5-min Rain = 0
KCL1 220239Z 09008KT 07/M01 A2991 RMK A01 T00721009  RH  056%=      5-min Rain = 0
KCL1 220240Z 10009KT 07/M01 A2991 RMK A01 T00711009  RH  057%=      5-min Rain = 0
KCL1 220241Z 10008KT 07/M01 A2991 RMK A01 T00701009  RH  057%=      5-min Rain = 0
KCL1 220242Z 10009KT 07/M01 A2991 RMK A01 T00701009  RH  057%=      5-min Rain = 0
KCL1 220243Z 09009KT 07/M01 A2991 RMK A01 T00701009  RH  057%=      5-min Rain = 0
KCL1 220244Z 09009KT 07/M01 A2991 RMK A01 T00701009  RH  057%=      5-min Rain = 0
KCL1 220245Z 09009KT 07/M01 A2991 RMK A01 T00701009  RH  057%=      5-min Rain = 0
KCL1 220246Z 10008KT 07/M01 A2991 RMK A01 T00701009  RH  057%=      5-min Rain = 0
KCL1 220247Z 09008KT 07/M01 A2991 RMK A01 T00691009  RH  057%=      5-min Rain = 0
KCL1 220248Z 09008KT 07/M01 A2991 RMK A01 T00691009  RH  058%=      5-min Rain = 0
KCL1 220249Z 09008KT 07/M01 A2992 RMK A01 T00691009  RH  058%=      5-min Rain = 0
KCL1 220250Z 10008KT 07/M01 A2992 RMK A01 T00681009  RH  058%=      5-min Rain = 0
KCL1 220251Z 10008KT 07/M01 A2992 RMK A01 T00681009  RH  058%=      5-min Rain = 0
KCL1 220252Z 10009KT 07/M01 A2991 RMK A01 T00681009  RH  058%=      5-min Rain = 0
KCL1 220253Z 10010KT 07/M01 A2991 RMK A01 T00681009  RH  058%=      5-min Rain = 0
KCL1 220254Z 10010KT 07/M01 A299 RMK A01 T00681008  RH  058%=      5-min Rain = 0
KCL1 220255Z 10010KT 07/M01 A299 RMK A01 T00681008  RH  058%=      5-min Rain = 0
KCL1 220256Z 10010KT 07/M01 A299 RMK A01 T00681008  RH  058%=      5-min Rain = 0
KCL1 220257Z 09009KT 07/M01 A299 RMK A01 T00681008  RH  058%=      5-min Rain = 0
KCL1 220258Z 09009KT 07/M01 A299 RMK A01 T00681008  RH  058%=      5-min Rain = 0
KCL1 220259Z 09009KT 07/M01 A299 RMK A01 T00691008  RH  058%=      5-min Rain = 0
KCL1 220300Z 09009KT 07/M01 A2991 RMK A01 T00681008  RH  058%=      5-min Rain = 0
KCL1 220301Z 09008KT 07/M01 A2991 RMK A01 T00691008  RH  058%=      5-min Rain = 0
KCL1 220302Z 08008KT 07/M01 A2991 RMK A01 T00681007  RH  058%=      5-min Rain = 0
KCL1 220303Z 09008KT 07/M01 A299 RMK A01 T00681007  RH  058%=      5-min Rain = 0
KCL1 220304Z 08008KT 07/M01 A299 RMK A01 T00681007  RH  058%=      5-min Rain = 0
KCL1 220305Z 09008KT 07/M01 A2991 RMK A01 T00691007  RH  058%=      5-min Rain = 0
KCL1 220306Z 09008KT 07/M01 A2991 RMK A01 T00691007  RH  058%=      5-min Rain = 0
KCL1 220307Z 09008KT 07/M01 A2991 RMK A01 T00691008  RH  058%=      5-min Rain = 0
KCL1 220308Z 09008KT 07/M01 A2991 RMK A01 T00691008  RH  058%=      5-min Rain = 0
KCL1 220309Z 09008KT 07/M01 A2991 RMK A01 T00691008  RH  058%=      5-min Rain = 0
KCL1 220310Z 09008KT 07/M01 A2991 RMK A01 T00691008  RH  058%=      5-min Rain = 0
KCL1 220311Z 08008KT 07/M01 A2991 RMK A01 T00681008  RH  058%=      5-min Rain = 0
KCL1 220312Z 09008KT 07/M01 A2991 RMK A01 T00681008  RH  058%=      5-min Rain = 0
KCL1 220313Z 09009KT 07/M01 A2991 RMK A01 T00681008  RH  058%=      5-min Rain = 0
KCL1 220314Z 09009KT 07/M01 A2991 RMK A01 T00681008  RH  058%=      5-min Rain = 0
KCL1 220315Z 09009KT 07/M01 A2991 RMK A01 T00691008  RH  058%=      5-min Rain = 0
KCL1 220316Z 10009KT 07/M01 A2991 RMK A01 T00691008  RH  058%=      5-min Rain = 0
KCL1 220317Z 10009KT 07/M01 A2991 RMK A01 T00691008  RH  058%=      5-min Rain = 0
KCL1 220318Z 10009KT 07/M01 A2991 RMK A01 T00691008  RH  058%=      5-min Rain = 0
KCL1 220319Z 10009KT 07/M01 A2991 RMK A01 T00681008  RH  058%=      5-min Rain = 0
KCL1 220320Z 10009KT 07/M01 A2991 RMK A01 T00681009  RH  058%=      5-min Rain = 0
KCL1 220321Z 10009KT 07/M01 A2991 RMK A01 T00681009  RH  058%=      5-min Rain = 0
KCL1 220322Z 10008KT 07/M01 A2991 RMK A01 T00681009  RH  058%=      5-min Rain = 0
KCL1 220323Z 10009KT 07/M01 A2991 RMK A01 T00681009  RH  058%=      5-min Rain = 0
KCL1 220324Z 10009KT 07/M01 A2991 RMK A01 T00681009  RH  058%=      5-min Rain = 0
KCL1 220325Z 10009KT 07/M01 A2991 RMK A01 T00681008  RH  058%=      5-min Rain = 0
KCL1 220326Z 10009KT 07/M01 A2991 RMK A01 T00681008  RH  058%=      5-min Rain = 0
KCL1 220327Z 10009KT 07/M01 A2991 RMK A01 T00681008  RH  058%=      5-min Rain = 0
KCL1 220328Z 10009KT 07/M01 A2991 RMK A01 T00691008  RH  058%=      5-min Rain = 0
KCL1 220329Z 10009KT 07/M01 A2991 RMK A01 T00691008  RH  058%=      5-min Rain = 0
KCL1 220330Z 10009KT 07/M01 A2991 RMK A01 T00701008  RH  058%=      5-min Rain = 0
KCL1 220331Z 10009KT 07/M01 A2991 RMK A01 T00701007  RH  058%=      5-min Rain = 0
KCL1 220332Z 10009KT 07/M01 A2991 RMK A01 T00711007  RH  058%=      5-min Rain = 0
KCL1 220333Z 10008KT 07/M01 A2992 RMK A01 T00711007  RH  058%=      5-min Rain = 0
KCL1 220334Z 10009KT 07/M01 A2992 RMK A01 T00721006  RH  058%=      5-min Rain = 0
KCL1 220335Z 10009KT 07/M01 A2992 RMK A01 T00731005  RH  058%=      5-min Rain = 0
KCL1 220336Z 10008KT 07/M01 A2992 RMK A01 T00741005  RH  057%=      5-min Rain = 0
KCL1 220337Z 09008KT 08/M01 A2992 RMK A01 T00751005  RH  057%=      5-min Rain = 0
KCL1 220338Z 09008KT 08/M01 A2992 RMK A01 T00751005  RH  057%=      5-min Rain = 0
KCL1 220339Z 09008KT 08/M01 A2992 RMK A01 T00751005  RH  057%=      5-min Rain = 0
KCL1 220340Z 09008KT 08/M00 A2992 RMK A01 T00761004  RH  057%=      5-min Rain = 0
KCL1 220341Z 09008KT 08/M00 A2992 RMK A01 T00761004  RH  057%=      5-min Rain = 0
KCL1 220342Z 09008KT 08/M00 A2992 RMK A01 T00761004  RH  057%=      5-min Rain = 0
KCL1 220343Z 09009KT 08/M00 A2992 RMK A01 T00761004  RH  057%=      5-min Rain = 0
KCL1 220344Z 09008KT 08/M01 A2992 RMK A01 T00761005  RH  057%=      5-min Rain = 0
KCL1 220345Z 09008KT 08/M01 A2992 RMK A01 T00751005  RH  057%=      5-min Rain = 0
KCL1 220346Z 10008KT 08/M01 A2992 RMK A01 T00751005  RH  057%=      5-min Rain = 0
KCL1 220347Z 10008KT 07/M01 A2992 RMK A01 T00741005  RH  057%=      5-min Rain = 0
KCL1 220348Z 10008KT 07/M01 A2992 RMK A01 T00731005  RH  057%=      5-min Rain = 0
KCL1 220349Z 11008KT 07/M01 A2992 RMK A01 T00731005  RH  058%=      5-min Rain = 0
KCL1 220350Z 11008KT 07/M01 A2992 RMK A01 T00731005  RH  058%=      5-min Rain = 0
KCL1 220351Z 11008KT 07/M01 A2992 RMK A01 T00731005  RH  058%=      5-min Rain = 0
KCL1 220352Z 11008KT 07/M01 A2992 RMK A01 T00721006  RH  058%=      5-min Rain = 0
KCL1 220353Z 11008KT 07/M01 A2993 RMK A01 T00721006  RH  058%=      5-min Rain = 0
KCL1 220354Z 11007KT 07/M01 A2993 RMK A01 T00711006  RH  058%=      5-min Rain = 0
KCL1 220355Z 11007KT 07/M01 A2993 RMK A01 T00701006  RH  058%=      5-min Rain = 0
KCL1 220356Z 11007KT 07/M01 A2993 RMK A01 T00691006  RH  059%=      5-min Rain = 0
KCL1 220357Z 11008KT 07/M01 A2992 RMK A01 T00691006  RH  059%=      5-min Rain = 0
KCL1 220358Z 11007KT 07/M01 A2992 RMK A01 T00681006  RH  059%=      5-min Rain = 0
KCL1 220359Z 11007KT 07/M01 A2992 RMK A01 T00681006  RH  059%=      5-min Rain = 0
KCL1 220400Z 11007KT 07/M01 A2992 RMK A01 T00681006  RH  059%=      5-min Rain = 0
KCL1 220401Z 11007KT 07/M01 A2992 RMK A01 T00681006  RH  059%=      5-min Rain = 0
KCL1 220402Z 10007KT 07/M01 A2992 RMK A01 T00671006  RH  059%=      5-min Rain = 0
KCL1 220403Z 10007KT 07/M01 A2992 RMK A01 T00671006  RH  060%=      5-min Rain = 0
KCL1 220404Z 09008KT 07/M01 A2992 RMK A01 T00671006  RH  060%=      5-min Rain = 0
KCL1 220405Z 09008KT 07/M01 A2992 RMK A01 T00661006  RH  060%=      5-min Rain = 0
KCL1 220406Z 09008KT 07/M01 A2992 RMK A01 T00661007  RH  060%=      5-min Rain = 0
KCL1 220407Z 08008KT 07/M01 A2992 RMK A01 T00651007  RH  060%=      5-min Rain = 0
KCL1 220408Z 08007KT 07/M01 A2992 RMK A01 T00651006  RH  060%=      5-min Rain = 0
KCL1 220409Z 08007KT 06/M01 A2992 RMK A01 T00641006  RH  061%=      5-min Rain = 0
KCL1 220410Z 08007KT 06/M01 A2992 RMK A01 T00641006  RH  061%=      5-min Rain = 0
KCL1 220411Z 08007KT 06/M01 A2992 RMK A01 T00641006  RH  061%=      5-min Rain = 0
KCL1 220412Z 07006KT 06/M01 A2992 RMK A01 T00631006  RH  061%=      5-min Rain = 0
KCL1 220413Z 07006KT 06/M01 A2993 RMK A01 T00621007  RH  061%=      5-min Rain = 0
KCL1 220414Z 07006KT 06/M01 A2993 RMK A01 T00611008  RH  061%=      5-min Rain = 0
KCL1 220415Z 07006KT 06/M01 A2993 RMK A01 T00601008  RH  062%=      5-min Rain = 0
KCL1 220416Z 07006KT 06/M01 A2993 RMK A01 T00591008  RH  062%=      5-min Rain = 0
KCL1 220417Z 07006KT 06/M01 A2993 RMK A01 T00581009  RH  062%=      5-min Rain = 0
KCL1 220418Z 07006KT 06/M01 A2993 RMK A01 T00571009  RH  063%=      5-min Rain = 0
KCL1 220419Z 06007KT 06/M01 A2993 RMK A01 T00561009  RH  063%=      5-min Rain = 0
KCL1 220420Z 07007KT 06/M01 A2993 RMK A01 T00551009  RH  063%=      5-min Rain = 0
KCL1 220421Z 07007KT 06/M01 A2993 RMK A01 T00551009  RH  063%=      5-min Rain = 0
KCL1 220422Z 07007KT 06/M01 A2993 RMK A01 T00551009  RH  063%=      5-min Rain = 0
KCL1 220423Z 07008KT 06/M01 A2993 RMK A01 T00551009  RH  063%=      5-min Rain = 0
KCL1 220424Z 08008KT 06/M01 A2993 RMK A01 T00551009  RH  063%=      5-min Rain = 0
KCL1 220425Z 08008KT 06/M01 A2993 RMK A01 T00551009  RH  064%=      5-min Rain = 0
KCL1 220426Z 08008KT 06/M01 A2993 RMK A01 T00551009  RH  064%=      5-min Rain = 0
KCL1 220427Z 08008KT 05/M01 A2993 RMK A01 T00541009  RH  064%=      5-min Rain = 0
KCL1 220428Z 08008KT 05/M01 A2993 RMK A01 T00541009  RH  064%=      5-min Rain = 0
KCL1 220429Z 08008KT 05/M01 A2993 RMK A01 T00541009  RH  064%=      5-min Rain = 0
KCL1 220430Z 09009KT 05/M01 A2993 RMK A01 T00541009  RH  064%=      5-min Rain = 0
KCL1 220431Z 09009KT 05/M01 A2993 RMK A01 T00541009  RH  064%=      5-min Rain = 0
KCL1 220432Z 09008KT 05/M01 A2993 RMK A01 T00541009  RH  064%=      5-min Rain = 0
KCL1 220433Z 09008KT 05/M01 A2993 RMK A01 T00541008  RH  064%=      5-min Rain = 0
KCL1 220434Z 09008KT 05/M01 A2993 RMK A01 T00531009  RH  064%=      5-min Rain = 0
KCL1 220435Z 09007KT 05/M01 A2993 RMK A01 T00521010  RH  064%=      5-min Rain = 0
KCL1 220436Z 08007KT 05/M01 A2993 RMK A01 T00511010  RH  065%=      5-min Rain = 0
KCL1 220437Z 07007KT 05/M01 A2993 RMK A01 T00501009  RH  065%=      5-min Rain = 0
KCL1 220438Z 07007KT 05/M01 A2994 RMK A01 T00511009  RH  065%=      5-min Rain = 0
KCL1 220439Z 06007KT 05/M01 A2994 RMK A01 T00511009  RH  065%=      5-min Rain = 0
KCL1 220440Z 06008KT 05/M01 A2994 RMK A01 T00511008  RH  066%=      5-min Rain = 0
KCL1 220441Z 06008KT 05/M01 A2994 RMK A01 T00501009  RH  066%=      5-min Rain = 0
KCL1 220442Z 06008KT 05/M01 A2994 RMK A01 T00491009  RH  066%=      5-min Rain = 0
KCL1 220443Z 05008KT 05/M01 A2994 RMK A01 T00481009  RH  067%=      5-min Rain = 0
KCL1 220444Z 05008KT 05/M01 A2994 RMK A01 T00471009  RH  067%=      5-min Rain = 0
KCL1 220445Z 05008KT 05/M01 A2994 RMK A01 T00461009  RH  067%=      5-min Rain = 0
KCL1 220446Z 05008KT 05/M01 A2995 RMK A01 T00461009  RH  068%=      5-min Rain = 0
KCL1 220447Z 05008KT 05/M01 A2995 RMK A01 T00451009  RH  068%=      5-min Rain = 0
KCL1 220448Z 06008KT 05/M01 A2995 RMK A01 T00451008  RH  068%=      5-min Rain = 0
KCL1 220449Z 05008KT 04/M01 A2995 RMK A01 T00441008  RH  069%=      5-min Rain = 0
KCL1 220450Z 05008KT 04/M01 A2995 RMK A01 T00431009  RH  069%=      5-min Rain = 0
KCL1 220451Z 05008KT 04/M01 A2995 RMK A01 T00431008  RH  069%=      5-min Rain = 0
KCL1 220452Z 05008KT 04/M01 A2995 RMK A01 T00431008  RH  069%=      5-min Rain = 0
KCL1 220453Z 05007KT 04/M01 A2995 RMK A01 T00431008  RH  069%=      5-min Rain = 0
KCL1 220454Z 05007KT 04/M01 A2995 RMK A01 T00431009  RH  069%=      5-min Rain = 0
KCL1 220455Z 05008KT 04/M01 A2995 RMK A01 T00421009  RH  069%=      5-min Rain = 0
KCL1 220456Z 06008KT 04/M01 A2995 RMK A01 T00421009  RH  069%=      5-min Rain = 0
KCL1 220457Z 06008KT 04/M01 A2994 RMK A01 T00411009  RH  070%=      5-min Rain = 0
KCL1 220458Z 06008KT 04/M01 A2994 RMK A01 T00411009  RH  070%=      5-min Rain = 0
KCL1 220459Z 06008KT 04/M01 A2994 RMK A01 T00421009  RH  070%=      5-min Rain = 0
KCL1 220500Z 06009KT 04/M01 A2994 RMK A01 T00411009  RH  070%=      5-min Rain = 0
KCL1 220501Z 06009KT 04/M01 A2994 RMK A01 T00411009  RH  070%=      5-min Rain = 0
KCL1 220502Z 06009KT 04/M01 A2994 RMK A01 T00411010  RH  070%=      5-min Rain = 0
KCL1 220503Z 06009KT 04/M01 A2994 RMK A01 T00401010  RH  070%=      5-min Rain = 0
KCL1 220504Z 06010KT 04/M01 A2994 RMK A01 T00401010  RH  070%=      5-min Rain = 0
KCL1 220505Z 06010KT 04/M01 A2994 RMK A01 T00391010  RH  070%=      5-min Rain = 0
KCL1 220506Z 06010KT 04/M01 A2994 RMK A01 T00401009  RH  070%=      5-min Rain = 0
KCL1 220507Z 06010KT 04/M01 A2994 RMK A01 T00391009  RH  070%=      5-min Rain = 0
KCL1 220508Z 06010KT 04/M01 A2994 RMK A01 T00401009  RH  071%=      5-min Rain = 0
KCL1 220509Z 06010KT 04/M01 A2994 RMK A01 T00401008  RH  071%=      5-min Rain = 0
KCL1 220510Z 06010KT 04/M01 A2994 RMK A01 T00411008  RH  071%=      5-min Rain = 0
KCL1 220511Z 06009KT 04/M01 A2994 RMK A01 T00411008  RH  071%=      5-min Rain = 0
KCL1 220512Z 06009KT 04/M01 A2994 RMK A01 T00411008  RH  071%=      5-min Rain = 0
KCL1 220513Z 07009KT 04/M01 A2994 RMK A01 T00411007  RH  071%=      5-min Rain = 0
KCL1 220514Z 07009KT 04/M01 A2994 RMK A01 T00411007  RH  071%=      5-min Rain = 0
KCL1 220515Z 07009KT 04/M01 A2994 RMK A01 T00421006  RH  071%=      5-min Rain = 0
KCL1 220516Z 08009KT 04/M01 A2994 RMK A01 T00431005  RH  071%=      5-min Rain = 0
KCL1 220517Z 07010KT 04/M01 A2994 RMK A01 T00431005  RH  071%=      5-min Rain = 0
KCL1 220518Z 07010KT 04/M01 A2994 RMK A01 T00431006  RH  071%=      5-min Rain = 0
KCL1 220519Z 07010KT 04/M01 A2994 RMK A01 T00431006  RH  070%=      5-min Rain = 0
KCL1 220520Z 07010KT 04/M01 A2994 RMK A01 T00431006  RH  071%=      5-min Rain = 0
KCL1 220521Z 07010KT 04/M01 A2994 RMK A01 T00421006  RH  071%=      5-min Rain = 0
KCL1 220522Z 07009KT 04/M01 A2994 RMK A01 T00421007  RH  071%=      5-min Rain = 0
KCL1 220523Z 06009KT 04/M01 A2994 RMK A01 T00411007  RH  071%=      5-min Rain = 0
KCL1 220524Z 06009KT 04/M01 A2994 RMK A01 T00401007  RH  071%=      5-min Rain = 0
KCL1 220525Z 06008KT 04/M01 A2994 RMK A01 T00391008  RH  071%=      5-min Rain = 0
KCL1 220526Z 07009KT 04/M01 A2994 RMK A01 T00381009  RH  072%=      5-min Rain = 0
KCL1 220527Z 07009KT 04/M01 A2994 RMK A01 T00371009  RH  072%=      5-min Rain = 0
KCL1 220528Z 07009KT 04/M01 A2994 RMK A01 T00371009  RH  072%=      5-min Rain = 0
KCL1 220529Z 08008KT 04/M01 A2994 RMK A01 T00371008  RH  072%=      5-min Rain = 0
KCL1 220530Z 08008KT 04/M01 A2994 RMK A01 T00361009  RH  072%=      5-min Rain = 0
KCL1 220531Z 08008KT 04/M01 A2994 RMK A01 T00351010  RH  072%=      5-min Rain = 0
KCL1 220532Z 08008KT 03/M01 A2994 RMK A01 T00331012  RH  072%=      5-min Rain = 0
KCL1 220533Z 08008KT 03/M01 A2994 RMK A01 T00311012  RH  073%=      5-min Rain = 0
KCL1 220534Z 08008KT 03/M01 A2994 RMK A01 T00311011  RH  074%=      5-min Rain = 0
KCL1 220535Z 08008KT 03/M01 A2994 RMK A01 T00311011  RH  074%=      5-min Rain = 0
KCL1 220536Z 08008KT 03/M01 A2994 RMK A01 T00311011  RH  074%=      5-min Rain = 0
KCL1 220537Z 08008KT 03/M01 A2994 RMK A01 T00311010  RH  074%=      5-min Rain = 0
KCL1 220538Z 08009KT 03/M01 A2994 RMK A01 T00311010  RH  074%=      5-min Rain = 0
KCL1 220539Z 08009KT 03/M01 A2994 RMK A01 T00301011  RH  074%=      5-min Rain = 0
KCL1 220540Z 09009KT 03/M01 A2994 RMK A01 T00301012  RH  074%=      5-min Rain = 0
KCL1 220541Z 09009KT 03/M01 A2994 RMK A01 T00291012  RH  075%=      5-min Rain = 0
KCL1 220542Z 09009KT 03/M01 A2993 RMK A01 T00281013  RH  075%=      5-min Rain = 0
KCL1 220543Z 09010KT 03/M01 A2993 RMK A01 T00271013  RH  075%=      5-min Rain = 0
KCL1 220544Z 09010KT 03/M01 A2993 RMK A01 T00271012  RH  075%=      5-min Rain = 0
KCL1 220545Z 09010KT 03/M01 A2993 RMK A01 T00271011  RH  076%=      5-min Rain = 0
KCL1 220546Z 09010KT 03/M01 A2993 RMK A01 T00271011  RH  076%=      5-min Rain = 0
KCL1 220547Z 09010KT 03/M01 A2993 RMK A01 T00271011  RH  076%=      5-min Rain = 0
KCL1 220548Z 09009KT 03/M01 A2993 RMK A01 T00271011  RH  076%=      5-min Rain = 0
KCL1 220549Z 09010KT 03/M01 A2993 RMK A01 T00271011  RH  076%=      5-min Rain = 0
KCL1 220550Z 09010KT 03/M01 A2993 RMK A01 T00271011  RH  076%=      5-min Rain = 0
KCL1 220551Z 09010KT 03/M01 A2993 RMK A01 T00271011  RH  076%=      5-min Rain = 0
KCL1 220552Z 09010KT 03/M01 A2993 RMK A01 T00271010  RH  076%=      5-min Rain = 0
KCL1 220553Z 09010KT 03/M01 A2993 RMK A01 T00271010  RH  076%=      5-min Rain = 0
KCL1 220554Z 10010KT 03/M01 A2993 RMK A01 T00271010  RH  076%=      5-min Rain = 0
KCL1 220555Z 10010KT 03/M01 A2993 RMK A01 T00271010  RH  076%=      5-min Rain = 0
KCL1 220556Z 10010KT 03/M01 A2993 RMK A01 T00271010  RH  077%=      5-min Rain = 0
KCL1 220557Z 10010KT 03/M01 A2993 RMK A01 T00271009  RH  077%=      5-min Rain = 0
KCL1 220558Z 10010KT 03/M01 A2993 RMK A01 T00271009  RH  077%=      5-min Rain = 0
KCL1 220559Z 10009KT 03/M01 A2993 RMK A01 T00291007  RH  077%=      5-min Rain = 0

Page generated in 0.1813 seconds.